Time,TemperatureF,DewpointF,PressureIn,WindDirection,WindDirectionDegrees,WindSpeedMPH,WindSpeedGustMPH,Humidity,HourlyPrecipIn,Conditions,Clouds,dailyrainin,SoftwareType,DateUTC
2013-03-01 00:00:00,149.5,99.9,0.00,ENE,58,4.7,6.2,84,0.00,,SKC,0.00,VWS V14.01,2013-03-01 05:00:00,
2013-03-01 00:05:00,149.5,99.9,0.00,NE,45,3.8,4.7,83,0.00,,SKC,0.00,VWS V14.01,2013-03-01 05:05:00,
2013-03-01 00:06:00,149.5,99.9,0.00,ENE,62,2.5,3.9,84,0.00,,SKC,0.00,VWS V14.01,2013-03-01 05:06:00,
2013-03-01 00:10:00,149.5,99.9,0.00,NE,51,2.2,4.3,84,0.00,,SKC,0.00,VWS V14.01,2013-03-01 05:10:00,
2013-03-01 00:11:00,149.5,99.9,0.00,NNE,25,1.9,2.4,84,0.00,,SKC,0.00,VWS V14.01,2013-03-01 05:11:00,
2013-03-01 00:15:00,149.5,99.9,0.00,ENE,72,1.8,1.8,84,0.00,,SKC,0.00,VWS V14.01,2013-03-01 05:15:00,
2013-03-01 00:16:00,149.5,99.9,0.00,North,359,3.0,6.5,83,0.00,,SKC,0.00,VWS V14.01,2013-03-01 05:16:00,
2013-03-01 00:20:00,149.5,99.9,0.00,ENE,62,4.2,4.2,83,0.00,,SKC,0.00,VWS V14.01,2013-03-01 05:20:00,
2013-03-01 00:21:00,149.5,99.9,0.00,ESE,115,2.7,6.7,83,0.00,,SKC,0.00,VWS V14.01,2013-03-01 05:21:00,
2013-03-01 00:25:00,149.5,99.9,0.00,East,97,3.8,4.6,83,0.00,,SKC,0.00,VWS V14.01,2013-03-01 05:25:00,
2013-03-01 00:26:00,149.5,99.9,0.00,NE,55,2.5,4.1,83,0.00,,SKC,0.00,VWS V14.01,2013-03-01 05:26:00,
2013-03-01 00:30:00,149.5,99.9,0.00,NE,53,1.9,3.3,83,0.00,,SKC,0.00,VWS V14.01,2013-03-01 05:30:00,
2013-03-01 00:31:00,149.5,99.9,0.00,ENE,58,1.1,2.8,83,0.00,,SKC,0.00,VWS V14.01,2013-03-01 05:31:00,
2013-03-01 00:35:00,149.5,99.9,0.00,East,100,0.0,0.0,84,0.00,,SKC,0.00,VWS V14.01,2013-03-01 05:35:00,
2013-03-01 00:36:00,149.5,99.9,0.00,East,100,0.0,0.0,84,0.00,,SKC,0.00,VWS V14.01,2013-03-01 05:36:00,
2013-03-01 00:40:00,149.5,99.9,0.00,East,100,0.0,0.0,84,0.00,,SKC,0.00,VWS V14.01,2013-03-01 05:40:00,
2013-03-01 00:41:00,149.5,99.9,0.00,East,100,0.0,0.0,84,0.00,,SKC,0.00,VWS V14.01,2013-03-01 05:41:00,
2013-03-01 00:45:00,149.5,99.9,0.00,East,100,0.0,0.0,84,0.00,,SKC,0.00,VWS V14.01,2013-03-01 05:45:00,
2013-03-01 00:46:00,149.5,99.9,0.00,East,100,0.0,0.0,84,0.00,,SKC,0.00,VWS V14.01,2013-03-01 05:46:00,
2013-03-01 00:50:00,149.5,99.9,0.00,East,100,0.0,0.0,84,0.00,,SKC,0.00,VWS V14.01,2013-03-01 05:50:00,
2013-03-01 00:51:00,149.5,99.9,0.00,East,100,0.0,0.0,84,0.00,,SKC,0.00,VWS V14.01,2013-03-01 05:51:00,
2013-03-01 00:55:00,149.5,99.9,0.00,East,100,0.0,0.0,85,0.00,,SKC,0.00,VWS V14.01,2013-03-01 05:55:00,
2013-03-01 00:56:00,149.5,99.9,0.00,East,100,0.0,0.0,85,0.00,,SKC,0.00,VWS V14.01,2013-03-01 05:56:00,
2013-03-01 01:00:00,149.5,99.9,0.00,East,100,0.0,0.0,85,0.00,,SKC,0.00,VWS V14.01,2013-03-01 06:00:00,
2013-03-01 01:01:00,149.5,99.9,0.00,East,100,0.0,0.0,85,0.00,,SKC,0.00,VWS V14.01,2013-03-01 06:01:00,
2013-03-01 01:05:00,149.5,99.9,0.00,East,100,0.0,0.0,85,0.00,,SKC,0.00,VWS V14.01,2013-03-01 06:05:00,
2013-03-01 01:06:00,149.5,99.9,0.00,East,100,0.0,0.0,85,0.00,,SKC,0.00,VWS V14.01,2013-03-01 06:06:00,
2013-03-01 01:10:00,149.5,99.9,0.00,East,100,0.0,0.0,86,0.00,,SKC,0.00,VWS V14.01,2013-03-01 06:10:00,
2013-03-01 01:11:00,149.5,99.9,0.00,East,100,0.0,0.0,86,0.00,,SKC,0.00,VWS V14.01,2013-03-01 06:11:00,
2013-03-01 01:15:00,149.5,99.9,0.00,East,100,0.0,0.0,86,0.00,,SKC,0.00,VWS V14.01,2013-03-01 06:15:00,
2013-03-01 01:16:00,149.5,99.9,0.00,East,100,0.0,0.0,86,0.00,,SKC,0.00,VWS V14.01,2013-03-01 06:16:00,
2013-03-01 01:20:00,149.5,99.9,0.00,East,100,0.0,0.0,87,0.00,,SKC,0.00,VWS V14.01,2013-03-01 06:20:00,
2013-03-01 01:21:00,149.5,99.9,0.00,East,100,0.0,0.0,87,0.00,,SKC,0.00,VWS V14.01,2013-03-01 06:21:00,
2013-03-01 01:22:00,149.5,99.9,0.00,East,100,0.0,0.0,87,0.00,,SKC,0.00,VWS V14.01,2013-03-01 06:22:00,
2013-03-01 01:25:00,149.5,99.9,0.00,East,100,0.0,0.0,87,0.00,,SKC,0.00,VWS V14.01,2013-03-01 06:25:00,
2013-03-01 01:26:00,149.5,99.9,0.00,East,100,0.0,0.0,87,0.00,,SKC,0.00,VWS V14.01,2013-03-01 06:26:00,
2013-03-01 01:27:00,149.5,99.9,0.00,East,100,0.0,0.0,87,0.00,,SKC,0.00,VWS V14.01,2013-03-01 06:27:00,
2013-03-01 01:31:00,149.5,99.9,0.00,East,100,0.0,0.0,88,0.00,,SKC,0.00,VWS V14.01,2013-03-01 06:31:00,
2013-03-01 01:32:00,149.5,99.9,0.00,East,100,0.0,0.0,88,0.00,,SKC,0.00,VWS V14.01,2013-03-01 06:32:00,
2013-03-01 01:36:00,149.5,99.9,0.00,East,100,0.0,0.0,88,0.00,,SKC,0.00,VWS V14.01,2013-03-01 06:36:00,
2013-03-01 01:37:00,149.5,99.9,0.00,East,100,0.0,0.0,88,0.00,,SKC,0.00,VWS V14.01,2013-03-01 06:37:00,
2013-03-01 01:41:00,149.5,99.9,0.00,East,100,0.0,0.0,89,0.00,,SKC,0.00,VWS V14.01,2013-03-01 06:41:00,
2013-03-01 01:42:00,149.5,99.9,0.00,East,100,0.0,0.0,89,0.00,,SKC,0.00,VWS V14.01,2013-03-01 06:42:00,
2013-03-01 01:46:00,149.5,99.9,0.00,East,100,0.0,0.0,89,0.00,,SKC,0.00,VWS V14.01,2013-03-01 06:46:00,
2013-03-01 01:47:00,149.5,99.9,0.00,East,100,0.0,0.0,89,0.00,,SKC,0.00,VWS V14.01,2013-03-01 06:47:00,
2013-03-01 01:51:00,149.5,99.9,0.00,East,100,0.0,0.0,90,0.00,,SKC,0.00,VWS V14.01,2013-03-01 06:51:00,
2013-03-01 01:52:00,149.5,99.9,0.00,East,100,0.0,0.0,90,0.00,,SKC,0.00,VWS V14.01,2013-03-01 06:52:00,
2013-03-01 01:56:00,149.5,99.9,0.00,East,100,0.0,0.0,90,0.00,,SKC,0.00,VWS V14.01,2013-03-01 06:56:00,
2013-03-01 01:57:00,149.5,99.9,0.00,North,4,3.5,3.5,90,0.00,,SKC,0.00,VWS V14.01,2013-03-01 06:57:00,
2013-03-01 02:01:00,149.5,99.9,0.00,North,8,2.5,3.5,90,0.00,,SKC,0.00,VWS V14.01,2013-03-01 07:01:00,
2013-03-01 02:02:00,149.5,99.9,0.00,North,6,2.3,3.5,90,0.00,,SKC,0.00,VWS V14.01,2013-03-01 07:02:00,
2013-03-01 02:06:00,149.5,99.9,0.00,North,4,2.6,3.6,90,0.00,,SKC,0.00,VWS V14.01,2013-03-01 07:06:00,
2013-03-01 02:07:00,149.5,99.9,0.00,North,7,4.0,4.0,90,0.00,,SKC,0.00,VWS V14.01,2013-03-01 07:07:00,
2013-03-01 02:11:00,149.5,99.9,0.00,North,7,3.3,4.0,90,0.00,,SKC,0.00,VWS V14.01,2013-03-01 07:11:00,
2013-03-01 02:12:00,149.5,99.9,0.00,NNE,31,3.0,3.7,90,0.00,,SKC,0.00,VWS V14.01,2013-03-01 07:12:00,
2013-03-01 02:13:00,149.5,99.9,0.00,North,7,2.4,2.4,90,0.00,,SKC,0.00,VWS V14.01,2013-03-01 07:13:00,
2013-03-01 02:16:00,149.5,99.9,0.00,NNE,27,2.4,2.6,90,0.00,,SKC,0.00,VWS V14.01,2013-03-01 07:16:00,
2013-03-01 02:17:00,149.5,99.9,0.00,NE,34,2.1,2.3,90,0.00,,SKC,0.00,VWS V14.01,2013-03-01 07:17:00,
2013-03-01 02:18:00,149.5,99.9,0.00,NNE,32,2.5,2.5,90,0.00,,SKC,0.00,VWS V14.01,2013-03-01 07:18:00,
2013-03-01 02:21:00,149.5,99.9,0.00,NE,39,3.7,3.7,90,0.00,,SKC,0.00,VWS V14.01,2013-03-01 07:21:00,
2013-03-01 02:22:00,149.5,99.9,0.00,NNE,14,2.9,3.0,91,0.00,,SKC,0.00,VWS V14.01,2013-03-01 07:22:00,
2013-03-01 02:23:00,149.5,99.9,0.00,NNE,18,2.9,3.6,91,0.00,,SKC,0.00,VWS V14.01,2013-03-01 07:23:00,
2013-03-01 02:26:00,149.5,99.9,0.00,NE,37,4.1,4.1,91,0.00,,SKC,0.00,VWS V14.01,2013-03-01 07:26:00,
2013-03-01 02:27:00,149.5,99.9,0.00,NNE,14,3.4,4.2,92,0.00,,SKC,0.00,VWS V14.01,2013-03-01 07:27:00,
2013-03-01 02:28:00,149.5,99.9,0.00,NNE,14,2.9,3.4,92,0.00,,SKC,0.00,VWS V14.01,2013-03-01 07:28:00,
2013-03-01 02:31:00,149.5,99.9,0.00,NNE,13,2.5,2.8,92,0.00,,SKC,0.00,VWS V14.01,2013-03-01 07:31:00,
2013-03-01 02:32:00,149.5,99.9,0.00,NE,44,3.2,3.4,92,0.00,,SKC,0.00,VWS V14.01,2013-03-01 07:32:00,
2013-03-01 02:33:00,149.5,99.9,0.00,North,10,2.7,2.7,92,0.00,,SKC,0.00,VWS V14.01,2013-03-01 07:33:00,
2013-03-01 02:36:00,149.5,99.9,0.00,NE,39,2.5,3.6,92,0.00,,SKC,0.00,VWS V14.01,2013-03-01 07:36:00,
2013-03-01 02:37:00,149.5,99.9,0.00,NNE,18,3.3,3.7,93,0.00,,SKC,0.00,VWS V14.01,2013-03-01 07:37:00,
2013-03-01 02:38:00,149.5,99.9,0.00,NNE,15,3.2,3.4,93,0.00,,SKC,0.00,VWS V14.01,2013-03-01 07:38:00,
2013-03-01 02:41:00,149.5,99.9,0.00,NNE,14,3.7,4.0,93,0.00,,SKC,0.00,VWS V14.01,2013-03-01 07:41:00,
2013-03-01 02:42:00,149.5,99.9,0.00,NNE,18,3.9,4.2,93,0.00,,SKC,0.00,VWS V14.01,2013-03-01 07:42:00,
2013-03-01 02:43:00,149.5,99.9,0.00,NNE,14,3.5,4.2,93,0.00,,SKC,0.00,VWS V14.01,2013-03-01 07:43:00,
2013-03-01 02:47:00,149.5,99.9,0.00,NNE,21,2.1,2.7,93,0.00,,SKC,0.00,VWS V14.01,2013-03-01 07:47:00,
2013-03-01 02:48:00,149.5,99.9,0.00,NE,39,3.1,3.2,93,0.00,,SKC,0.00,VWS V14.01,2013-03-01 07:48:00,
2013-03-01 02:52:00,149.5,99.9,0.00,NNE,18,1.9,3.0,93,0.00,,SKC,0.00,VWS V14.01,2013-03-01 07:52:00,
2013-03-01 02:53:00,149.5,99.9,0.00,NE,46,2.2,3.0,93,0.00,,SKC,0.00,VWS V14.01,2013-03-01 07:53:00,
2013-03-01 02:57:00,149.5,99.9,0.00,NNE,13,3.7,4.0,94,0.00,,SKC,0.00,VWS V14.01,2013-03-01 07:57:00,
2013-03-01 02:58:00,149.5,99.9,0.00,NE,34,4.0,5.2,94,0.00,,SKC,0.00,VWS V14.01,2013-03-01 07:58:00,
2013-03-01 03:02:00,149.5,99.9,0.00,NE,37,3.9,4.0,94,0.00,,SKC,0.00,VWS V14.01,2013-03-01 08:02:00,
2013-03-01 03:03:00,149.5,99.9,0.00,NNE,25,3.6,3.8,94,0.00,,SKC,0.00,VWS V14.01,2013-03-01 08:03:00,
2013-03-01 03:04:00,149.5,99.9,0.00,NNE,24,3.9,4.2,94,0.00,,SKC,0.00,VWS V14.01,2013-03-01 08:04:00,
2013-03-01 03:07:00,149.5,99.9,0.00,NNE,14,4.0,5.4,94,0.00,,SKC,0.00,VWS V14.01,2013-03-01 08:07:00,
2013-03-01 03:08:00,149.5,99.9,0.00,NNE,18,3.9,4.5,94,0.00,,SKC,0.00,VWS V14.01,2013-03-01 08:08:00,
2013-03-01 03:09:00,149.5,99.9,0.00,NNE,13,4.8,5.0,95,0.00,,SKC,0.00,VWS V14.01,2013-03-01 08:09:00,
2013-03-01 03:12:00,149.5,99.9,0.00,NNE,13,3.4,5.3,95,0.00,,SKC,0.00,VWS V14.01,2013-03-01 08:12:00,
2013-03-01 03:13:00,149.5,99.9,0.00,North,1,4.8,5.4,95,0.00,,SKC,0.00,VWS V14.01,2013-03-01 08:13:00,
2013-03-01 03:14:00,149.5,99.9,0.00,North,1,3.8,4.6,95,0.00,,SKC,0.00,VWS V14.01,2013-03-01 08:14:00,
2013-03-01 03:17:00,149.5,99.9,0.00,North,356,4.2,5.7,95,0.00,,SKC,0.00,VWS V14.01,2013-03-01 08:17:00,
2013-03-01 03:18:00,149.5,99.9,0.00,North,1,5.0,5.0,95,0.00,,SKC,0.00,VWS V14.01,2013-03-01 08:18:00,
2013-03-01 03:19:00,149.5,99.9,0.00,North,4,4.2,5.1,95,0.00,,SKC,0.00,VWS V14.01,2013-03-01 08:19:00,
2013-03-01 03:22:00,149.5,99.9,0.00,NE,34,3.6,4.2,95,0.00,,SKC,0.00,VWS V14.01,2013-03-01 08:22:00,
2013-03-01 03:23:00,149.5,99.9,0.00,NNE,28,4.7,5.3,95,0.00,,SKC,0.00,VWS V14.01,2013-03-01 08:23:00,
2013-03-01 03:24:00,149.5,99.9,0.00,NNE,25,3.3,5.9,95,0.00,,SKC,0.00,VWS V14.01,2013-03-01 08:24:00,
2013-03-01 03:27:00,149.5,99.9,0.00,North,6,5.8,5.8,95,0.00,,SKC,0.00,VWS V14.01,2013-03-01 08:27:00,
2013-03-01 03:28:00,149.5,99.9,0.00,NNE,14,4.3,4.5,95,0.00,,SKC,0.00,VWS V14.01,2013-03-01 08:28:00,
2013-03-01 03:29:00,149.5,99.9,0.00,North,359,5.3,6.0,95,0.00,,SKC,0.00,VWS V14.01,2013-03-01 08:29:00,
2013-03-01 03:32:00,149.5,99.9,0.00,NNE,13,4.2,6.4,95,0.00,,SKC,0.00,VWS V14.01,2013-03-01 08:32:00,
2013-03-01 03:33:00,149.5,99.9,0.00,NNE,30,4.4,4.8,96,0.00,,SKC,0.00,VWS V14.01,2013-03-01 08:33:00,
2013-03-01 03:34:00,149.5,99.9,0.00,NNE,22,4.1,4.5,96,0.00,,SKC,0.00,VWS V14.01,2013-03-01 08:34:00,
2013-03-01 03:37:00,149.5,99.9,0.00,NNE,27,4.5,4.7,96,0.00,,SKC,0.00,VWS V14.01,2013-03-01 08:37:00,
2013-03-01 03:38:00,149.5,99.9,0.00,NE,34,3.1,4.5,96,0.00,,SKC,0.00,VWS V14.01,2013-03-01 08:38:00,
2013-03-01 03:39:00,149.5,99.9,0.00,NE,42,2.5,4.5,96,0.00,,SKC,0.00,VWS V14.01,2013-03-01 08:39:00,
2013-03-01 03:40:00,149.5,99.9,0.00,NE,46,3.5,4.5,96,0.00,,SKC,0.00,VWS V14.01,2013-03-01 08:40:00,
2013-03-01 03:42:00,149.5,99.9,0.00,North,359,2.8,3.4,96,0.00,,SKC,0.00,VWS V14.01,2013-03-01 08:42:00,
2013-03-01 03:44:00,149.5,99.9,0.00,NE,41,2.8,2.8,96,0.00,,SKC,0.00,VWS V14.01,2013-03-01 08:44:00,
2013-03-01 03:45:00,149.5,99.9,0.00,NE,39,2.8,3.5,96,0.00,,SKC,0.00,VWS V14.01,2013-03-01 08:45:00,
2013-03-01 03:47:00,149.5,99.9,0.00,NE,52,2.9,3.8,96,0.00,,SKC,0.00,VWS V14.01,2013-03-01 08:47:00,
2013-03-01 03:49:00,149.5,99.9,0.00,NE,37,4.0,4.9,96,0.00,,SKC,0.00,VWS V14.01,2013-03-01 08:49:00,
2013-03-01 03:50:00,149.5,99.9,0.00,NE,38,3.0,4.7,96,0.00,,SKC,0.00,VWS V14.01,2013-03-01 08:50:00,
2013-03-01 03:52:00,149.5,99.9,0.00,North,4,3.2,3.3,96,0.00,,SKC,0.00,VWS V14.01,2013-03-01 08:52:00,
2013-03-01 03:54:00,149.5,99.9,0.00,North,0,2.3,2.8,96,0.00,,SKC,0.00,VWS V14.01,2013-03-01 08:54:00,
2013-03-01 03:55:00,149.5,99.9,0.00,North,3,2.1,3.3,96,0.00,,SKC,0.00,VWS V14.01,2013-03-01 08:55:00,
2013-03-01 03:57:00,149.5,99.9,0.00,NNE,24,2.8,3.9,96,0.00,,SKC,0.00,VWS V14.01,2013-03-01 08:57:00,
2013-03-01 03:59:00,149.5,99.9,0.00,North,0,3.5,3.5,96,0.00,,SKC,0.00,VWS V14.01,2013-03-01 08:59:00,
2013-03-01 04:00:00,149.5,99.9,0.00,NE,41,4.0,4.0,96,0.00,,SKC,0.00,VWS V14.01,2013-03-01 09:00:00,
2013-03-01 04:02:00,149.5,99.9,0.00,NE,34,4.8,5.2,97,0.00,,SKC,0.00,VWS V14.01,2013-03-01 09:02:00,
2013-03-01 04:04:00,149.5,99.9,0.00,North,0,4.1,4.1,97,0.00,,SKC,0.00,VWS V14.01,2013-03-01 09:04:00,
2013-03-01 04:05:00,149.5,99.9,0.00,NNE,25,4.4,5.1,97,0.00,,SKC,0.00,VWS V14.01,2013-03-01 09:05:00,
2013-03-01 04:07:00,149.5,99.9,0.00,NE,34,3.6,5.2,97,0.00,,SKC,0.00,VWS V14.01,2013-03-01 09:07:00,
2013-03-01 04:09:00,149.5,99.9,0.00,North,4,4.0,4.6,97,0.00,,SKC,0.00,VWS V14.01,2013-03-01 09:09:00,
2013-03-01 04:10:00,149.5,99.9,0.00,North,7,4.8,4.8,97,0.00,,SKC,0.00,VWS V14.01,2013-03-01 09:10:00,
2013-03-01 04:12:00,149.5,99.9,0.00,North,359,4.5,4.5,97,0.00,,SKC,0.00,VWS V14.01,2013-03-01 09:12:00,
2013-03-01 04:14:00,149.5,99.9,0.00,NE,42,4.3,4.3,97,0.00,,SKC,0.00,VWS V14.01,2013-03-01 09:14:00,
2013-03-01 04:15:00,149.5,99.9,0.00,NE,44,3.8,4.6,97,0.00,,SKC,0.00,VWS V14.01,2013-03-01 09:15:00,
2013-03-01 04:17:00,149.5,99.9,0.00,NNE,28,3.4,5.5,97,0.00,,SKC,0.00,VWS V14.01,2013-03-01 09:17:00,
2013-03-01 04:19:00,149.5,99.9,0.00,North,3,3.8,3.8,97,0.00,,SKC,0.00,VWS V14.01,2013-03-01 09:19:00,
2013-03-01 04:20:00,149.5,99.9,0.00,North,11,3.8,5.3,97,0.00,,SKC,0.00,VWS V14.01,2013-03-01 09:20:00,
2013-03-01 04:21:00,149.5,99.9,0.00,NE,38,4.5,4.9,97,0.00,,SKC,0.00,VWS V14.01,2013-03-01 09:21:00,
2013-03-01 04:22:00,149.5,99.9,0.00,NE,42,4.4,4.7,97,0.00,,SKC,0.00,VWS V14.01,2013-03-01 09:22:00,
2013-03-01 04:24:00,149.5,99.9,0.00,NE,39,3.7,5.3,97,0.00,,SKC,0.00,VWS V14.01,2013-03-01 09:24:00,
2013-03-01 04:25:00,149.5,99.9,0.00,NNE,30,4.9,5.3,97,0.00,,SKC,0.00,VWS V14.01,2013-03-01 09:25:00,
2013-03-01 04:26:00,149.5,99.9,0.00,NE,44,3.5,4.9,97,0.00,,SKC,0.00,VWS V14.01,2013-03-01 09:26:00,
2013-03-01 04:27:00,149.5,99.9,0.00,NE,37,3.9,3.9,97,0.00,,SKC,0.00,VWS V14.01,2013-03-01 09:27:00,
2013-03-01 04:29:00,149.5,99.9,0.00,NE,42,3.5,4.5,97,0.00,,SKC,0.00,VWS V14.01,2013-03-01 09:29:00,
2013-03-01 04:30:00,149.5,99.9,0.00,NE,41,2.5,2.7,97,0.00,,SKC,0.00,VWS V14.01,2013-03-01 09:30:00,
2013-03-01 04:31:00,149.5,99.9,0.00,NNE,27,4.3,5.0,97,0.00,,SKC,0.00,VWS V14.01,2013-03-01 09:31:00,
2013-03-01 04:32:00,149.5,99.9,0.00,North,354,3.4,4.5,97,0.00,,SKC,0.00,VWS V14.01,2013-03-01 09:32:00,
2013-03-01 04:34:00,149.5,99.9,0.00,North,8,3.4,4.7,97,0.00,,SKC,0.00,VWS V14.01,2013-03-01 09:34:00,
2013-03-01 04:35:00,149.5,99.9,0.00,NE,51,5.0,5.0,97,0.00,,SKC,0.00,VWS V14.01,2013-03-01 09:35:00,
2013-03-01 04:36:00,149.5,99.9,0.00,NE,35,4.5,5.5,97,0.00,,SKC,0.00,VWS V14.01,2013-03-01 09:36:00,
2013-03-01 04:37:00,149.5,99.9,0.00,NE,42,4.5,5.1,97,0.00,,SKC,0.00,VWS V14.01,2013-03-01 09:37:00,
2013-03-01 04:39:00,149.5,99.9,0.00,North,11,4.8,6.1,97,0.00,,SKC,0.00,VWS V14.01,2013-03-01 09:39:00,
2013-03-01 04:40:00,149.5,99.9,0.00,NE,35,5.3,6.0,97,0.00,,SKC,0.00,VWS V14.01,2013-03-01 09:40:00,
2013-03-01 04:41:00,149.5,99.9,0.00,NE,39,5.3,6.0,97,0.00,,SKC,0.00,VWS V14.01,2013-03-01 09:41:00,
2013-03-01 04:42:00,149.5,99.9,0.00,NE,35,6.0,6.0,97,0.00,,SKC,0.00,VWS V14.01,2013-03-01 09:42:00,
2013-03-01 04:45:00,149.5,99.9,0.00,North,10,4.7,4.7,97,0.00,,SKC,0.00,VWS V14.01,2013-03-01 09:45:00,
2013-03-01 04:46:00,149.5,99.9,0.00,North,359,4.7,5.7,97,0.00,,SKC,0.00,VWS V14.01,2013-03-01 09:46:00,
2013-03-01 04:47:00,149.5,99.9,0.00,North,357,6.2,6.2,97,0.00,,SKC,0.00,VWS V14.01,2013-03-01 09:47:00,
2013-03-01 04:50:00,149.5,99.9,0.00,NNE,15,4.7,5.3,97,0.00,,SKC,0.00,VWS V14.01,2013-03-01 09:50:00,
2013-03-01 04:51:00,149.5,99.9,0.00,NNE,30,5.3,5.5,97,0.00,,SKC,0.00,VWS V14.01,2013-03-01 09:51:00,
2013-03-01 04:52:00,149.5,99.9,0.00,NNE,17,3.9,4.8,97,0.00,,SKC,0.00,VWS V14.01,2013-03-01 09:52:00,
2013-03-01 04:55:00,149.5,99.9,0.00,NE,49,5.6,5.6,97,0.00,,SKC,0.00,VWS V14.01,2013-03-01 09:55:00,
2013-03-01 04:56:00,149.5,99.9,0.00,NE,42,5.6,6.0,97,0.00,,SKC,0.00,VWS V14.01,2013-03-01 09:56:00,
2013-03-01 04:57:00,149.5,99.9,0.00,NNE,20,6.2,6.2,97,0.00,,SKC,0.00,VWS V14.01,2013-03-01 09:57:00,
2013-03-01 05:00:00,149.5,99.9,0.00,NE,39,4.5,5.3,97,0.00,,SKC,0.00,VWS V14.01,2013-03-01 10:00:00,
2013-03-01 05:01:00,149.5,99.9,0.00,NNE,28,5.0,5.0,97,0.00,,SKC,0.00,VWS V14.01,2013-03-01 10:01:00,
2013-03-01 05:03:00,149.5,99.9,0.00,NNE,24,5.1,5.3,97,0.00,,SKC,0.00,VWS V14.01,2013-03-01 10:03:00,
2013-03-01 05:05:00,149.5,99.9,0.00,NNE,15,5.0,5.2,97,0.00,,SKC,0.00,VWS V14.01,2013-03-01 10:05:00,
2013-03-01 05:06:00,149.5,99.9,0.00,NE,49,5.0,5.7,97,0.00,,SKC,0.00,VWS V14.01,2013-03-01 10:06:00,
2013-03-01 05:08:00,149.5,99.9,0.00,NE,34,4.4,5.7,97,0.00,,SKC,0.00,VWS V14.01,2013-03-01 10:08:00,
2013-03-01 05:10:00,149.5,99.9,0.00,NE,34,5.4,5.4,97,0.00,,SKC,0.00,VWS V14.01,2013-03-01 10:10:00,
2013-03-01 05:11:00,149.5,99.9,0.00,NE,39,5.2,5.3,97,0.00,,SKC,0.00,VWS V14.01,2013-03-01 10:11:00,
2013-03-01 05:12:00,149.5,99.9,0.00,NNE,22,5.8,5.8,97,0.00,,SKC,0.00,VWS V14.01,2013-03-01 10:12:00,
2013-03-01 05:13:00,149.5,99.9,0.00,NNE,32,4.4,5.3,97,0.00,,SKC,0.00,VWS V14.01,2013-03-01 10:13:00,
2013-03-01 05:15:00,149.5,99.9,0.00,NE,41,2.9,4.4,97,0.00,,SKC,0.00,VWS V14.01,2013-03-01 10:15:00,
2013-03-01 05:16:00,149.5,99.9,0.00,North,7,4.5,5.0,97,0.00,,SKC,0.00,VWS V14.01,2013-03-01 10:16:00,
2013-03-01 05:17:00,149.5,99.9,0.00,NE,41,4.6,5.7,97,0.00,,SKC,0.00,VWS V14.01,2013-03-01 10:17:00,
2013-03-01 05:18:00,149.5,99.9,0.00,NNE,27,4.2,4.7,97,0.00,,SKC,0.00,VWS V14.01,2013-03-01 10:18:00,
2013-03-01 05:20:00,149.5,99.9,0.00,NNE,20,3.8,5.0,97,0.00,,SKC,0.00,VWS V14.01,2013-03-01 10:20:00,
2013-03-01 05:21:00,149.5,99.9,0.00,NE,38,5.8,5.8,97,0.00,,SKC,0.00,VWS V14.01,2013-03-01 10:21:00,
2013-03-01 05:22:00,149.5,99.9,0.00,NE,37,5.7,6.0,97,0.00,,SKC,0.00,VWS V14.01,2013-03-01 10:22:00,
2013-03-01 05:23:00,149.5,99.9,0.00,NE,42,5.1,6.0,97,0.00,,SKC,0.00,VWS V14.01,2013-03-01 10:23:00,
2013-03-01 05:26:00,149.5,99.9,0.00,NE,34,4.4,4.7,97,0.00,,SKC,0.00,VWS V14.01,2013-03-01 10:26:00,
2013-03-01 05:27:00,149.5,99.9,0.00,NE,39,5.5,6.5,97,0.00,,SKC,0.00,VWS V14.01,2013-03-01 10:27:00,
2013-03-01 05:28:00,149.5,99.9,0.00,NE,38,5.8,5.8,97,0.00,,SKC,0.00,VWS V14.01,2013-03-01 10:28:00,
2013-03-01 05:31:00,149.5,99.9,0.00,North,7,2.7,3.1,97,0.00,,SKC,0.00,VWS V14.01,2013-03-01 10:31:00,
2013-03-01 05:32:00,149.5,99.9,0.00,North,7,3.2,3.4,97,0.00,,SKC,0.00,VWS V14.01,2013-03-01 10:32:00,
2013-03-01 05:33:00,149.5,99.9,0.00,North,10,2.1,2.7,97,0.00,,SKC,0.00,VWS V14.01,2013-03-01 10:33:00,
2013-03-01 05:36:00,149.5,99.9,0.00,NNE,18,4.1,4.1,97,0.00,,SKC,0.00,VWS V14.01,2013-03-01 10:36:00,
2013-03-01 05:37:00,149.5,99.9,0.00,NE,52,2.9,3.9,97,0.00,,SKC,0.00,VWS V14.01,2013-03-01 10:37:00,
2013-03-01 05:38:00,149.5,99.9,0.00,NE,56,2.5,3.2,97,0.00,,SKC,0.00,VWS V14.01,2013-03-01 10:38:00,
2013-03-01 05:41:00,149.5,99.9,0.00,NE,55,1.5,3.2,97,0.00,,SKC,0.00,VWS V14.01,2013-03-01 10:41:00,
2013-03-01 05:42:00,149.5,99.9,0.00,NNE,15,2.1,2.5,97,0.00,,SKC,0.00,VWS V14.01,2013-03-01 10:42:00,
2013-03-01 05:43:00,149.5,99.9,0.00,NNE,17,3.0,3.5,97,0.00,,SKC,0.00,VWS V14.01,2013-03-01 10:43:00,
2013-03-01 05:46:00,149.5,99.9,0.00,NNE,14,3.4,4.1,97,0.00,,SKC,0.00,VWS V14.01,2013-03-01 10:46:00,
2013-03-01 05:47:00,149.5,99.9,0.00,NNE,14,3.9,3.9,97,0.00,,SKC,0.00,VWS V14.01,2013-03-01 10:47:00,
2013-03-01 05:48:00,149.5,99.9,0.00,NNE,18,3.7,4.0,97,0.00,,SKC,0.00,VWS V14.01,2013-03-01 10:48:00,
2013-03-01 05:51:00,149.5,99.9,0.00,NNE,15,4.7,4.7,97,0.00,,SKC,0.00,VWS V14.01,2013-03-01 10:51:00,
2013-03-01 05:52:00,149.5,99.9,0.00,NE,37,4.4,4.4,97,0.00,,SKC,0.00,VWS V14.01,2013-03-01 10:52:00,
2013-03-01 05:53:00,149.5,99.9,0.00,NNE,20,4.2,5.1,97,0.00,,SKC,0.00,VWS V14.01,2013-03-01 10:53:00,
2013-03-01 05:56:00,149.5,99.9,0.00,NNE,21,3.1,3.1,97,0.00,,SKC,0.00,VWS V14.01,2013-03-01 10:56:00,
2013-03-01 05:57:00,149.5,99.9,0.00,NNE,20,3.4,3.7,97,0.00,,SKC,0.00,VWS V14.01,2013-03-01 10:57:00,
2013-03-01 05:58:00,149.5,99.9,0.00,NNE,18,3.4,3.7,97,0.00,,SKC,0.00,VWS V14.01,2013-03-01 10:58:00,
2013-03-01 06:01:00,149.5,99.9,0.00,ENE,68,3.6,3.9,97,0.00,,SKC,0.00,VWS V14.01,2013-03-01 11:01:00,
2013-03-01 06:02:00,149.5,99.9,0.00,NNE,28,4.3,4.7,97,0.00,,SKC,0.00,VWS V14.01,2013-03-01 11:02:00,
2013-03-01 06:03:00,149.5,99.9,0.00,NE,48,4.0,4.7,97,0.00,,SKC,0.00,VWS V14.01,2013-03-01 11:03:00,
2013-03-01 06:06:00,149.5,99.9,0.00,NNE,25,3.5,3.5,97,0.00,,SKC,0.00,VWS V14.01,2013-03-01 11:06:00,
2013-03-01 06:08:00,149.5,99.9,0.00,NNE,25,3.2,4.4,97,0.00,,SKC,0.00,VWS V14.01,2013-03-01 11:08:00,
2013-03-01 06:11:00,149.5,99.9,0.00,NNE,30,3.2,3.4,97,0.00,,SKC,0.00,VWS V14.01,2013-03-01 11:11:00,
2013-03-01 06:13:00,149.5,99.9,0.00,NNE,27,3.7,4.4,97,0.00,,SKC,0.00,VWS V14.01,2013-03-01 11:13:00,
2013-03-01 06:16:00,149.5,99.9,0.00,NNE,32,3.0,3.4,98,0.00,,SKC,0.00,VWS V14.01,2013-03-01 11:16:00,
2013-03-01 06:18:00,149.5,99.9,0.00,NE,34,2.7,4.1,98,0.00,,SKC,0.00,VWS V14.01,2013-03-01 11:18:00,
2013-03-01 06:19:00,149.5,99.9,0.00,NNE,32,2.5,3.4,97,0.00,,SKC,0.00,VWS V14.01,2013-03-01 11:19:00,
2013-03-01 06:21:00,149.5,99.9,0.00,NNE,32,2.2,2.5,97,0.00,,SKC,0.00,VWS V14.01,2013-03-01 11:21:00,
2013-03-01 06:23:00,149.5,99.9,0.00,NE,37,1.7,2.4,97,0.00,,SKC,0.00,VWS V14.01,2013-03-01 11:23:00,
2013-03-01 06:24:00,149.5,99.9,0.00,NNE,31,2.6,3.5,97,0.00,,SKC,0.00,VWS V14.01,2013-03-01 11:24:00,
2013-03-01 06:26:00,149.5,99.9,0.00,NE,34,3.0,4.0,97,0.00,,SKC,0.00,VWS V14.01,2013-03-01 11:26:00,
2013-03-01 06:28:00,149.5,99.9,0.00,NNE,32,1.7,3.4,97,0.00,,SKC,0.00,VWS V14.01,2013-03-01 11:28:00,
2013-03-01 06:29:00,149.5,99.9,0.00,NNE,32,3.8,3.8,97,0.00,,SKC,0.00,VWS V14.01,2013-03-01 11:29:00,
2013-03-01 06:31:00,149.5,99.9,0.00,ENE,75,3.1,3.1,97,0.00,,SKC,0.00,VWS V14.01,2013-03-01 11:31:00,
2013-03-01 06:33:00,149.5,99.9,0.00,NE,37,2.0,2.5,97,0.00,,SKC,0.00,VWS V14.01,2013-03-01 11:33:00,
2013-03-01 06:34:00,149.5,99.9,0.00,ENE,77,2.7,2.9,97,0.00,,SKC,0.00,VWS V14.01,2013-03-01 11:34:00,
2013-03-01 06:37:00,149.5,99.9,0.00,NNE,30,1.9,2.4,97,0.00,,SKC,0.00,VWS V14.01,2013-03-01 11:37:00,
2013-03-01 06:38:00,149.5,99.9,0.00,NE,38,2.4,2.7,97,0.00,,SKC,0.00,VWS V14.01,2013-03-01 11:38:00,
2013-03-01 06:39:00,149.5,99.9,0.00,NNE,31,1.9,2.9,97,0.00,,SKC,0.00,VWS V14.01,2013-03-01 11:39:00,
2013-03-01 06:42:00,149.5,99.9,0.00,NE,38,1.4,2.6,97,0.00,,SKC,0.00,VWS V14.01,2013-03-01 11:42:00,
2013-03-01 06:43:00,149.5,99.9,0.00,NE,35,3.5,3.8,97,0.00,,SKC,0.00,VWS V14.01,2013-03-01 11:43:00,
2013-03-01 06:44:00,149.5,99.9,0.00,NE,35,2.3,3.8,97,0.00,,SKC,0.00,VWS V14.01,2013-03-01 11:44:00,
2013-03-01 06:47:00,149.5,99.9,0.00,NE,35,0.0,2.4,97,0.00,,SKC,0.00,VWS V14.01,2013-03-01 11:47:00,
2013-03-01 06:48:00,149.5,99.9,0.00,NE,35,0.0,0.0,97,0.00,,SKC,0.00,VWS V14.01,2013-03-01 11:48:00,
2013-03-01 06:49:00,149.5,99.9,0.00,NE,35,0.0,0.0,97,0.00,,SKC,0.00,VWS V14.01,2013-03-01 11:49:00,
2013-03-01 06:52:00,149.5,99.9,0.00,NE,35,0.0,0.0,97,0.00,,SKC,0.00,VWS V14.01,2013-03-01 11:52:00,
2013-03-01 06:53:00,149.5,99.9,0.00,NE,35,0.0,0.0,97,0.00,,SKC,0.00,VWS V14.01,2013-03-01 11:53:00,
2013-03-01 06:54:00,149.5,99.9,0.00,NE,35,0.0,0.0,97,0.00,,SKC,0.00,VWS V14.01,2013-03-01 11:54:00,
2013-03-01 06:57:00,149.5,99.9,0.00,NE,35,0.0,0.0,97,0.00,,SKC,0.00,VWS V14.01,2013-03-01 11:57:00,
2013-03-01 06:58:00,149.5,99.9,0.00,NE,35,0.0,0.0,97,0.00,,SKC,0.00,VWS V14.01,2013-03-01 11:58:00,
2013-03-01 06:59:00,149.5,99.9,0.00,NE,35,0.0,0.0,97,0.00,,SKC,0.00,VWS V14.01,2013-03-01 11:59:00,
2013-03-01 07:02:00,149.5,99.9,0.00,NE,35,0.0,0.0,97,0.00,,SKC,0.00,VWS V14.01,2013-03-01 12:02:00,
2013-03-01 07:03:00,149.5,99.9,0.00,NE,35,0.0,0.0,97,0.00,,SKC,0.00,VWS V14.01,2013-03-01 12:03:00,
2013-03-01 07:04:00,149.5,99.9,0.00,NE,35,0.0,0.0,97,0.00,,SKC,0.00,VWS V14.01,2013-03-01 12:04:00,
2013-03-01 07:07:00,149.5,99.9,0.00,NNE,32,2.3,2.3,97,0.00,,SKC,0.00,VWS V14.01,2013-03-01 12:07:00,
2013-03-01 07:09:00,149.5,99.9,0.00,NE,35,2.9,3.0,97,0.00,,SKC,0.00,VWS V14.01,2013-03-01 12:09:00,
2013-03-01 07:10:00,149.5,99.9,0.00,NE,37,2.7,2.7,97,0.00,,SKC,0.00,VWS V14.01,2013-03-01 12:10:00,
2013-03-01 07:12:00,149.5,99.9,0.00,NE,35,1.4,1.4,97,0.00,,SKC,0.00,VWS V14.01,2013-03-01 12:12:00,
2013-03-01 07:14:00,149.5,99.9,0.00,NNE,32,1.7,2.4,97,0.00,,SKC,0.00,VWS V14.01,2013-03-01 12:14:00,
2013-03-01 07:17:00,149.5,99.9,0.00,NE,35,0.0,0.0,97,0.00,,SKC,0.00,VWS V14.01,2013-03-01 12:17:00,
2013-03-01 07:19:00,149.5,99.9,0.00,NE,35,0.0,0.0,97,0.00,,SKC,0.00,VWS V14.01,2013-03-01 12:19:00,
2013-03-01 07:20:00,149.5,99.9,0.00,NE,35,0.0,0.0,97,0.00,,SKC,0.00,VWS V14.01,2013-03-01 12:20:00,
2013-03-01 07:22:00,149.5,99.9,0.00,NE,35,0.0,0.0,97,0.00,,SKC,0.00,VWS V14.01,2013-03-01 12:22:00,
2013-03-01 07:24:00,149.5,99.9,0.00,NE,35,0.0,0.0,97,0.00,,SKC,0.00,VWS V14.01,2013-03-01 12:24:00,
2013-03-01 07:25:00,149.5,99.9,0.00,NE,35,0.0,0.0,97,0.00,,SKC,0.00,VWS V14.01,2013-03-01 12:25:00,
2013-03-01 07:27:00,149.5,99.9,0.00,NE,35,0.0,0.0,96,0.00,,SKC,0.00,VWS V14.01,2013-03-01 12:27:00,
2013-03-01 07:29:00,149.5,99.9,0.00,NE,35,0.0,0.0,96,0.00,,SKC,0.00,VWS V14.01,2013-03-01 12:29:00,
2013-03-01 07:30:00,149.5,99.9,0.00,NE,35,0.0,0.0,96,0.00,,SKC,0.00,VWS V14.01,2013-03-01 12:30:00,
2013-03-01 07:32:00,149.5,99.9,0.00,NE,35,0.0,0.0,97,0.00,,SKC,0.00,VWS V14.01,2013-03-01 12:32:00,
2013-03-01 07:34:00,149.5,99.9,0.00,NE,35,0.0,0.0,97,0.00,,SKC,0.00,VWS V14.01,2013-03-01 12:34:00,
2013-03-01 07:35:00,149.5,99.9,0.00,NE,35,0.0,0.0,97,0.00,,SKC,0.00,VWS V14.01,2013-03-01 12:35:00,
2013-03-01 07:37:00,149.5,99.9,0.00,NE,35,0.0,0.0,97,0.00,,SKC,0.00,VWS V14.01,2013-03-01 12:37:00,
2013-03-01 07:39:00,149.5,99.9,0.00,NE,35,0.0,0.0,97,0.00,,SKC,0.00,VWS V14.01,2013-03-01 12:39:00,
2013-03-01 07:40:00,149.5,99.9,0.00,NE,35,0.0,0.0,97,0.00,,SKC,0.00,VWS V14.01,2013-03-01 12:40:00,
2013-03-01 07:43:00,149.5,99.9,0.00,NE,35,0.0,0.0,97,0.00,,SKC,0.00,VWS V14.01,2013-03-01 12:43:00,
2013-03-01 07:44:00,149.5,99.9,0.00,NE,35,0.0,0.0,97,0.00,,SKC,0.00,VWS V14.01,2013-03-01 12:44:00,
2013-03-01 07:45:00,149.5,99.9,0.00,NE,35,0.0,0.0,97,0.00,,SKC,0.00,VWS V14.01,2013-03-01 12:45:00,
2013-03-01 07:48:00,149.5,99.9,0.00,NE,35,0.0,0.0,96,0.00,,SKC,0.00,VWS V14.01,2013-03-01 12:48:00,
2013-03-01 07:49:00,149.5,99.9,0.00,NE,35,0.0,0.0,96,0.00,,SKC,0.00,VWS V14.01,2013-03-01 12:49:00,
2013-03-01 07:50:00,149.5,99.9,0.00,NE,35,0.0,0.0,96,0.00,,SKC,0.00,VWS V14.01,2013-03-01 12:50:00,
2013-03-01 07:51:00,149.5,99.9,0.00,NE,35,0.0,0.0,96,0.00,,SKC,0.00,VWS V14.01,2013-03-01 12:51:00,
2013-03-01 07:53:00,149.5,99.9,0.00,NE,35,0.0,0.0,96,0.00,,SKC,0.00,VWS V14.01,2013-03-01 12:53:00,
2013-03-01 07:55:00,149.5,99.9,0.00,NE,35,0.0,0.0,96,0.00,,SKC,0.00,VWS V14.01,2013-03-01 12:55:00,
2013-03-01 07:56:00,149.5,99.9,0.00,NE,35,0.0,0.0,96,0.00,,SKC,0.00,VWS V14.01,2013-03-01 12:56:00,
2013-03-01 07:58:00,149.5,99.9,0.00,NE,35,0.0,0.0,96,0.00,,SKC,0.00,VWS V14.01,2013-03-01 12:58:00,
2013-03-01 08:00:00,149.5,99.9,0.00,NE,35,0.0,0.0,96,0.00,,SKC,0.00,VWS V14.01,2013-03-01 13:00:00,
2013-03-01 08:01:00,149.5,99.9,0.00,NE,35,0.0,0.0,96,0.00,,SKC,0.00,VWS V14.01,2013-03-01 13:01:00,
2013-03-01 08:03:00,149.5,99.9,0.00,NE,35,0.0,0.0,97,0.00,,SKC,0.00,VWS V14.01,2013-03-01 13:03:00,
2013-03-01 08:05:00,149.5,99.9,0.00,NE,35,0.0,0.0,97,0.00,,SKC,0.00,VWS V14.01,2013-03-01 13:05:00,
2013-03-01 08:06:00,149.5,99.9,0.00,NE,37,2.7,3.0,97,0.00,,SKC,0.00,VWS V14.01,2013-03-01 13:06:00,
2013-03-01 08:08:00,149.5,99.9,0.00,NNE,30,0.2,1.4,97,0.00,,SKC,0.00,VWS V14.01,2013-03-01 13:08:00,
2013-03-01 08:10:00,149.5,99.9,0.00,ENE,58,0.0,0.0,96,0.00,,SKC,0.00,VWS V14.01,2013-03-01 13:10:00,
2013-03-01 08:11:00,149.5,99.9,0.00,ENE,58,0.0,0.0,96,0.00,,SKC,0.00,VWS V14.01,2013-03-01 13:11:00,
2013-03-01 08:13:00,149.5,99.9,0.00,ENE,58,0.0,0.0,96,0.00,,SKC,0.00,VWS V14.01,2013-03-01 13:13:00,
2013-03-01 08:15:00,149.5,99.9,0.00,ENE,58,0.0,0.0,96,0.00,,SKC,0.00,VWS V14.01,2013-03-01 13:15:00,
2013-03-01 08:16:00,149.5,99.9,0.00,ENE,58,0.0,0.0,96,0.00,,SKC,0.00,VWS V14.01,2013-03-01 13:16:00,
2013-03-01 08:19:00,149.5,99.9,0.00,ENE,72,2.6,3.0,96,0.00,,SKC,0.00,VWS V14.01,2013-03-01 13:19:00,
2013-03-01 08:20:00,149.5,99.9,0.00,NE,41,2.6,2.6,96,0.00,,SKC,0.00,VWS V14.01,2013-03-01 13:20:00,
2013-03-01 08:21:00,149.5,99.9,0.00,NE,41,2.4,3.0,96,0.00,,SKC,0.00,VWS V14.01,2013-03-01 13:21:00,
2013-03-01 08:24:00,149.5,99.9,0.00,ENE,73,1.7,1.9,96,0.00,,SKC,0.00,VWS V14.01,2013-03-01 13:24:00,
2013-03-01 08:26:00,149.5,99.9,0.00,NE,35,2.1,2.2,96,0.00,,SKC,0.00,VWS V14.01,2013-03-01 13:26:00,
2013-03-01 08:29:00,149.5,99.9,0.00,NE,38,2.9,3.6,96,0.00,,SKC,0.00,VWS V14.01,2013-03-01 13:29:00,
2013-03-01 08:31:00,149.5,99.9,0.00,ENE,77,3.7,3.7,96,0.00,,SKC,0.00,VWS V14.01,2013-03-01 13:31:00,
2013-03-01 08:34:00,149.5,99.9,0.00,East,84,2.5,2.9,96,0.00,,SKC,0.00,VWS V14.01,2013-03-01 13:34:00,
2013-03-01 08:36:00,149.5,99.9,0.00,NE,41,2.8,3.2,96,0.00,,SKC,0.00,VWS V14.01,2013-03-01 13:36:00,
2013-03-01 08:39:00,149.5,99.9,0.00,East,79,0.0,0.0,96,0.00,,SKC,0.00,VWS V14.01,2013-03-01 13:39:00,
2013-03-01 08:41:00,149.5,99.9,0.00,East,79,0.0,0.0,96,0.00,,SKC,0.00,VWS V14.01,2013-03-01 13:41:00,
2013-03-01 08:44:00,149.5,99.9,0.00,East,79,0.0,0.0,95,0.00,,SKC,0.00,VWS V14.01,2013-03-01 13:44:00,
2013-03-01 08:46:00,149.5,99.9,0.00,East,79,0.0,0.0,95,0.00,,SKC,0.00,VWS V14.01,2013-03-01 13:46:00,
2013-03-01 08:50:00,149.5,99.9,0.00,ENE,68,1.7,2.7,95,0.00,,SKC,0.00,VWS V14.01,2013-03-01 13:50:00,
2013-03-01 08:51:00,149.5,99.9,0.00,NE,41,3.2,3.4,95,0.00,,SKC,0.00,VWS V14.01,2013-03-01 13:51:00,
2013-03-01 08:52:00,149.5,99.9,0.00,NE,48,4.0,4.0,95,0.00,,SKC,0.00,VWS V14.01,2013-03-01 13:52:00,
2013-03-01 08:55:00,149.5,99.9,0.00,ENE,77,2.7,4.2,94,0.00,,SKC,0.00,VWS V14.01,2013-03-01 13:55:00,
2013-03-01 08:56:00,149.5,99.9,0.00,ENE,73,2.9,3.8,94,0.00,,SKC,0.00,VWS V14.01,2013-03-01 13:56:00,
2013-03-01 08:57:00,149.5,99.9,0.00,ENE,69,1.9,3.8,94,0.00,,SKC,0.00,VWS V14.01,2013-03-01 13:57:00,
2013-03-01 09:00:00,149.5,99.9,0.00,East,79,2.7,2.7,93,0.00,,SKC,0.00,VWS V14.01,2013-03-01 14:00:00,
2013-03-01 09:01:00,149.5,99.9,0.00,ENE,65,1.8,2.2,93,0.00,,SKC,0.00,VWS V14.01,2013-03-01 14:01:00,
2013-03-01 09:02:00,149.5,99.9,0.00,ENE,62,2.4,3.8,93,0.00,,SKC,0.00,VWS V14.01,2013-03-01 14:02:00,
2013-03-01 09:05:00,149.5,99.9,0.00,NE,55,2.4,5.1,92,0.00,,SKC,0.00,VWS V14.01,2013-03-01 14:05:00,
2013-03-01 09:06:00,149.5,99.9,0.00,ENE,62,3.7,3.7,92,0.00,,SKC,0.00,VWS V14.01,2013-03-01 14:06:00,
2013-03-01 09:07:00,149.5,99.9,0.00,NE,55,3.7,4.7,92,0.00,,SKC,0.00,VWS V14.01,2013-03-01 14:07:00,
2013-03-01 09:10:00,149.5,99.9,0.00,East,87,1.8,4.7,91,0.00,,SKC,0.00,VWS V14.01,2013-03-01 14:10:00,
2013-03-01 09:11:00,149.5,99.9,0.00,East,80,1.7,2.7,91,0.00,,SKC,0.00,VWS V14.01,2013-03-01 14:11:00,
2013-03-01 09:12:00,149.5,99.9,0.00,East,101,3.8,5.2,91,0.00,,SKC,0.00,VWS V14.01,2013-03-01 14:12:00,
2013-03-01 09:15:00,149.5,99.9,0.00,East,79,1.0,2.2,90,0.00,,SKC,0.00,VWS V14.01,2013-03-01 14:15:00,
2013-03-01 09:17:00,149.5,99.9,0.00,East,90,3.7,4.5,90,0.00,,SKC,0.00,VWS V14.01,2013-03-01 14:17:00,
2013-03-01 09:20:00,149.5,99.9,0.00,ENE,63,2.9,3.5,90,0.00,,SKC,0.00,VWS V14.01,2013-03-01 14:20:00,
2013-03-01 09:22:00,149.5,99.9,0.00,East,83,2.7,4.3,90,0.00,,SKC,0.00,VWS V14.01,2013-03-01 14:22:00,
2013-03-01 09:25:00,149.5,99.9,0.00,East,93,2.9,3.7,89,0.00,,SKC,0.00,VWS V14.01,2013-03-01 14:25:00,
2013-03-01 09:27:00,149.5,99.9,0.00,East,90,2.1,2.2,89,0.00,,SKC,0.00,VWS V14.01,2013-03-01 14:27:00,
2013-03-01 09:28:00,149.5,99.9,0.00,East,94,0.0,2.2,89,0.00,,SKC,0.00,VWS V14.01,2013-03-01 14:28:00,
2013-03-01 09:30:00,149.5,99.9,0.00,East,94,0.0,0.0,89,0.00,,SKC,0.00,VWS V14.01,2013-03-01 14:30:00,
2013-03-01 09:32:00,149.5,99.9,0.00,East,94,0.0,0.0,88,0.00,,SKC,0.00,VWS V14.01,2013-03-01 14:32:00,
2013-03-01 09:33:00,149.5,99.9,0.00,East,94,0.0,0.0,88,0.00,,SKC,0.00,VWS V14.01,2013-03-01 14:33:00,
2013-03-01 09:35:00,149.5,99.9,0.00,ENE,68,3.5,4.3,88,0.00,,SKC,0.00,VWS V14.01,2013-03-01 14:35:00,
2013-03-01 09:37:00,149.5,99.9,0.00,ENE,70,2.4,2.4,88,0.00,,SKC,0.00,VWS V14.01,2013-03-01 14:37:00,
2013-03-01 09:38:00,149.5,99.9,0.00,ENE,69,2.5,2.6,88,0.00,,SKC,0.00,VWS V14.01,2013-03-01 14:38:00,
2013-03-01 09:40:00,149.5,99.9,0.00,East,80,3.6,3.9,88,0.00,,SKC,0.00,VWS V14.01,2013-03-01 14:40:00,
2013-03-01 09:42:00,149.5,99.9,0.00,ENE,70,0.0,0.0,88,0.00,,SKC,0.00,VWS V14.01,2013-03-01 14:42:00,
2013-03-01 09:43:00,149.5,99.9,0.00,ENE,70,0.0,0.0,88,0.00,,SKC,0.00,VWS V14.01,2013-03-01 14:43:00,
2013-03-01 09:45:00,149.5,99.9,0.00,ENE,70,0.0,0.0,88,0.00,,SKC,0.00,VWS V14.01,2013-03-01 14:45:00,
2013-03-01 09:47:00,149.5,99.9,0.00,ENE,70,0.0,0.0,88,0.00,,SKC,0.00,VWS V14.01,2013-03-01 14:47:00,
2013-03-01 09:48:00,149.5,99.9,0.00,ENE,70,0.0,0.0,88,0.00,,SKC,0.00,VWS V14.01,2013-03-01 14:48:00,
2013-03-01 09:50:00,149.5,99.9,0.00,ENE,70,0.0,0.0,87,0.00,,SKC,0.00,VWS V14.01,2013-03-01 14:50:00,
2013-03-01 09:53:00,149.5,99.9,0.00,ENE,70,0.0,0.0,87,0.00,,SKC,0.00,VWS V14.01,2013-03-01 14:53:00,
2013-03-01 09:55:00,149.5,99.9,0.00,ENE,70,0.0,0.0,87,0.00,,SKC,0.00,VWS V14.01,2013-03-01 14:55:00,
2013-03-01 09:58:00,149.5,99.9,0.00,ENE,70,0.0,0.0,85,0.00,,SKC,0.00,VWS V14.01,2013-03-01 14:58:00,
2013-03-01 10:00:00,149.5,99.9,0.00,ENE,70,0.0,0.0,85,0.00,,SKC,0.00,VWS V14.01,2013-03-01 15:00:00,
2013-03-01 10:03:00,149.5,99.9,0.00,ENE,70,0.0,0.0,85,0.00,,SKC,0.00,VWS V14.01,2013-03-01 15:03:00,
2013-03-01 10:05:00,149.5,99.9,0.00,SE,142,2.4,2.9,84,0.00,,SKC,0.00,VWS V14.01,2013-03-01 15:05:00,
2013-03-01 10:08:00,149.5,99.9,0.00,ESE,117,0.0,0.0,84,0.00,,SKC,0.00,VWS V14.01,2013-03-01 15:08:00,
2013-03-01 10:10:00,149.5,99.9,0.00,ESE,117,0.0,0.0,83,0.00,,SKC,0.00,VWS V14.01,2013-03-01 15:10:00,
2013-03-01 10:13:00,149.5,99.9,0.00,ESE,117,0.0,0.0,83,0.00,,SKC,0.00,VWS V14.01,2013-03-01 15:13:00,
2013-03-01 10:16:00,149.5,99.9,0.00,ENE,58,0.0,0.0,83,0.00,,SKC,0.00,VWS V14.01,2013-03-01 15:16:00,
2013-03-01 10:18:00,149.5,99.9,0.00,NNW,343,3.8,4.0,82,0.00,,SKC,0.00,VWS V14.01,2013-03-01 15:18:00,
2013-03-01 10:21:00,149.5,99.9,0.00,NW,321,0.0,0.6,82,0.00,,SKC,0.00,VWS V14.01,2013-03-01 15:21:00,
2013-03-01 10:23:00,149.5,99.9,0.00,West,270,3.1,3.7,82,0.00,,SKC,0.00,VWS V14.01,2013-03-01 15:23:00,
2013-03-01 10:24:00,149.5,99.9,0.00,West,262,1.6,3.7,82,0.00,,SKC,0.00,VWS V14.01,2013-03-01 15:24:00,
2013-03-01 10:26:00,149.5,99.9,0.00,WSW,238,2.2,2.9,82,0.00,,SKC,0.00,VWS V14.01,2013-03-01 15:26:00,
2013-03-01 10:29:00,149.5,99.9,0.00,SSW,205,6.0,6.5,82,0.00,,SKC,0.00,VWS V14.01,2013-03-01 15:29:00,
2013-03-01 10:31:00,149.5,99.9,0.00,SSE,155,0.7,2.4,82,0.00,,SKC,0.00,VWS V14.01,2013-03-01 15:31:00,
2013-03-01 10:34:00,149.5,99.9,0.00,SSW,202,2.9,6.0,82,0.00,,SKC,0.00,VWS V14.01,2013-03-01 15:34:00,
2013-03-01 10:36:00,149.5,99.9,0.00,SSE,165,0.0,3.2,82,0.00,,SKC,0.00,VWS V14.01,2013-03-01 15:36:00,
2013-03-01 10:39:00,149.5,99.9,0.00,SSE,163,6.0,6.8,82,0.00,,SKC,0.00,VWS V14.01,2013-03-01 15:39:00,
2013-03-01 10:41:00,149.5,99.9,0.00,SE,132,0.9,3.4,82,0.00,,SKC,0.00,VWS V14.01,2013-03-01 15:41:00,
2013-03-01 10:44:00,149.5,99.9,0.00,SW,229,5.1,5.8,82,0.00,,SKC,0.00,VWS V14.01,2013-03-01 15:44:00,
2013-03-01 10:46:00,149.5,99.9,0.00,SSW,211,2.2,2.8,82,0.00,,SKC,0.00,VWS V14.01,2013-03-01 15:46:00,
2013-03-01 10:49:00,149.5,99.9,0.00,SW,228,5.3,5.7,82,0.00,,SKC,0.00,VWS V14.01,2013-03-01 15:49:00,
2013-03-01 10:50:00,149.5,99.9,0.00,SSW,193,4.5,6.2,82,0.00,,SKC,0.00,VWS V14.01,2013-03-01 15:50:00,
2013-03-01 10:51:00,149.5,99.9,0.00,SW,229,4.8,5.2,81,0.00,,SKC,0.00,VWS V14.01,2013-03-01 15:51:00,
2013-03-01 10:54:00,149.5,99.9,0.00,SSW,195,3.7,4.0,81,0.00,,SKC,0.00,VWS V14.01,2013-03-01 15:54:00,
2013-03-01 10:55:00,149.5,99.9,0.00,SSW,205,2.2,4.2,82,0.00,,SKC,0.00,VWS V14.01,2013-03-01 15:55:00,
2013-03-01 10:56:00,149.5,99.9,0.00,SW,221,7.3,7.5,81,0.00,,SKC,0.00,VWS V14.01,2013-03-01 15:56:00,
2013-03-01 10:59:00,149.5,99.9,0.00,SSW,195,2.3,3.7,82,0.00,,SKC,0.00,VWS V14.01,2013-03-01 15:59:00,
2013-03-01 11:00:00,149.5,99.9,0.00,SSW,211,8.1,8.1,82,0.00,,SKC,0.00,VWS V14.01,2013-03-01 16:00:00,
2013-03-01 11:01:00,149.5,99.9,0.00,SW,215,3.5,5.8,81,0.00,,SKC,0.00,VWS V14.01,2013-03-01 16:01:00,
2013-03-01 11:05:00,149.5,99.9,0.00,SW,235,5.5,7.7,81,0.00,,SKC,0.00,VWS V14.01,2013-03-01 16:05:00,
2013-03-01 11:06:00,149.5,99.9,0.00,WSW,246,6.5,6.9,82,0.00,,SKC,0.00,VWS V14.01,2013-03-01 16:06:00,
2013-03-01 11:10:00,149.5,99.9,0.00,SW,232,5.5,7.5,81,0.00,,SKC,0.00,VWS V14.01,2013-03-01 16:10:00,
2013-03-01 11:11:00,149.5,99.9,0.00,WSW,253,5.8,6.0,81,0.00,,SKC,0.00,VWS V14.01,2013-03-01 16:11:00,
2013-03-01 11:13:00,149.5,99.9,0.00,WSW,243,3.4,7.8,81,0.00,,SKC,0.00,VWS V14.01,2013-03-01 16:13:00,
2013-03-01 11:15:00,149.5,99.9,0.00,SSW,210,5.3,6.7,81,0.00,,SKC,0.00,VWS V14.01,2013-03-01 16:15:00,
2013-03-01 11:18:00,149.5,99.9,0.00,WSW,239,3.2,7.1,81,0.00,,SKC,0.00,VWS V14.01,2013-03-01 16:18:00,
2013-03-01 11:20:00,149.5,99.9,0.00,SW,235,5.5,7.3,82,0.00,,SKC,0.00,VWS V14.01,2013-03-01 16:20:00,
2013-03-01 11:21:00,149.5,99.9,0.00,WSW,255,3.5,5.1,81,0.00,,SKC,0.00,VWS V14.01,2013-03-01 16:21:00,
2013-03-01 11:23:00,149.5,99.9,0.00,South,186,5.4,6.6,81,0.00,,SKC,0.00,VWS V14.01,2013-03-01 16:23:00,
2013-03-01 11:25:00,149.5,99.9,0.00,SW,235,4.7,5.5,81,0.00,,SKC,0.00,VWS V14.01,2013-03-01 16:25:00,
2013-03-01 11:26:00,149.5,99.9,0.00,SSW,212,6.2,6.8,81,0.00,,SKC,0.00,VWS V14.01,2013-03-01 16:26:00,
2013-03-01 11:28:00,149.5,99.9,0.00,SSW,207,5.5,7.2,81,0.00,,SKC,0.00,VWS V14.01,2013-03-01 16:28:00,
2013-03-01 11:30:00,149.5,99.9,0.00,WSW,250,6.3,6.3,82,0.00,,SKC,0.00,VWS V14.01,2013-03-01 16:30:00,
2013-03-01 11:31:00,149.5,99.9,0.00,West,259,6.4,6.5,82,0.00,,SKC,0.00,VWS V14.01,2013-03-01 16:31:00,
2013-03-01 11:33:00,149.5,99.9,0.00,WSW,245,5.3,5.5,82,0.00,,SKC,0.00,VWS V14.01,2013-03-01 16:33:00,
2013-03-01 11:35:00,149.5,99.9,0.00,WSW,246,4.8,4.8,82,0.00,,SKC,0.00,VWS V14.01,2013-03-01 16:35:00,
2013-03-01 11:36:00,149.5,99.9,0.00,SW,222,4.1,5.5,82,0.00,,SKC,0.00,VWS V14.01,2013-03-01 16:36:00,
2013-03-01 11:38:00,149.5,99.9,0.00,West,273,5.2,5.7,82,0.00,,SKC,0.00,VWS V14.01,2013-03-01 16:38:00,
2013-03-01 11:40:00,149.5,99.9,0.00,SW,232,5.3,6.4,82,0.00,,SKC,0.00,VWS V14.01,2013-03-01 16:40:00,
2013-03-01 11:41:00,149.5,99.9,0.00,SW,236,4.5,5.3,82,0.00,,SKC,0.00,VWS V14.01,2013-03-01 16:41:00,
2013-03-01 11:43:00,149.5,99.9,0.00,SSW,211,6.4,7.0,83,0.00,,SKC,0.00,VWS V14.01,2013-03-01 16:43:00,
2013-03-01 11:45:00,149.5,99.9,0.00,WSW,246,5.0,5.0,83,0.00,,SKC,0.00,VWS V14.01,2013-03-01 16:45:00,
2013-03-01 11:46:00,149.5,99.9,0.00,WSW,246,5.2,5.2,83,0.00,,SKC,0.00,VWS V14.01,2013-03-01 16:46:00,
2013-03-01 11:49:00,149.5,99.9,0.00,WSW,245,5.8,8.1,82,0.00,,SKC,0.00,VWS V14.01,2013-03-01 16:49:00,
2013-03-01 11:50:00,149.5,99.9,0.00,WSW,243,7.7,7.7,82,0.00,,SKC,0.00,VWS V14.01,2013-03-01 16:50:00,
2013-03-01 11:51:00,149.5,99.9,0.00,SW,228,6.2,7.7,83,0.00,,SKC,0.00,VWS V14.01,2013-03-01 16:51:00,
2013-03-01 11:54:00,149.5,99.9,0.00,WSW,255,4.8,5.2,83,0.00,,SKC,0.00,VWS V14.01,2013-03-01 16:54:00,
2013-03-01 11:55:00,149.5,99.9,0.00,SW,219,6.5,6.9,82,0.00,,SKC,0.00,VWS V14.01,2013-03-01 16:55:00,
2013-03-01 11:56:00,149.5,99.9,0.00,SSW,210,5.5,7.1,83,0.00,,SKC,0.00,VWS V14.01,2013-03-01 16:56:00,
2013-03-01 11:59:00,149.5,99.9,0.00,SW,225,4.3,5.3,82,0.00,,SKC,0.00,VWS V14.01,2013-03-01 16:59:00,
2013-03-01 12:00:00,149.5,99.9,0.00,SW,236,6.2,6.6,82,0.00,,SKC,0.00,VWS V14.01,2013-03-01 17:00:00,
2013-03-01 12:01:00,149.5,99.9,0.00,SSW,204,8.9,8.9,82,0.00,,SKC,0.00,VWS V14.01,2013-03-01 17:01:00,
2013-03-01 12:04:00,149.5,99.9,0.00,West,259,2.8,7.0,82,0.00,,SKC,0.00,VWS V14.01,2013-03-01 17:04:00,
2013-03-01 12:05:00,149.5,99.9,0.00,WSW,239,3.6,3.7,82,0.00,,SKC,0.00,VWS V14.01,2013-03-01 17:05:00,
2013-03-01 12:06:00,149.5,99.9,0.00,SSW,205,0.0,3.7,82,0.00,,SKC,0.00,VWS V14.01,2013-03-01 17:06:00,
2013-03-01 12:09:00,149.5,99.9,0.00,SW,229,7.3,9.1,81,0.00,,SKC,0.00,VWS V14.01,2013-03-01 17:09:00,
2013-03-01 12:10:00,149.5,99.9,0.00,WNW,287,3.1,4.8,80,0.00,,SKC,0.00,VWS V14.01,2013-03-01 17:10:00,
2013-03-01 12:11:00,149.5,99.9,0.00,WSW,256,3.9,4.8,81,0.00,,SKC,0.00,VWS V14.01,2013-03-01 17:11:00,
2013-03-01 12:12:00,149.5,99.9,0.00,West,271,6.5,6.7,81,0.00,,SKC,0.00,VWS V14.01,2013-03-01 17:12:00,
2013-03-01 12:14:00,149.5,99.9,0.00,WSW,242,5.8,7.3,81,0.00,,SKC,0.00,VWS V14.01,2013-03-01 17:14:00,
2013-03-01 12:15:00,149.5,99.9,0.00,WSW,253,7.7,9.1,81,0.00,,SKC,0.00,VWS V14.01,2013-03-01 17:15:00,
2013-03-01 12:16:00,149.5,99.9,0.00,SSW,212,4.8,9.1,81,0.00,,SKC,0.00,VWS V14.01,2013-03-01 17:16:00,
2013-03-01 12:17:00,149.5,99.9,0.00,WSW,255,8.7,10.4,81,0.00,,SKC,0.00,VWS V14.01,2013-03-01 17:17:00,
2013-03-01 12:19:00,149.5,99.9,0.00,WSW,255,4.7,5.0,82,0.00,,SKC,0.00,VWS V14.01,2013-03-01 17:19:00,
2013-03-01 12:20:00,149.5,99.9,0.00,WSW,249,7.9,8.3,81,0.00,,SKC,0.00,VWS V14.01,2013-03-01 17:20:00,
2013-03-01 12:21:00,149.5,99.9,0.00,West,273,5.3,9.8,81,0.00,,SKC,0.00,VWS V14.01,2013-03-01 17:21:00,
2013-03-01 12:22:00,149.5,99.9,0.00,West,267,6.2,7.8,81,0.00,,SKC,0.00,VWS V14.01,2013-03-01 17:22:00,
2013-03-01 12:24:00,149.5,99.9,0.00,West,278,5.3,8.9,81,0.00,,SKC,0.00,VWS V14.01,2013-03-01 17:24:00,
2013-03-01 12:25:00,149.5,99.9,0.00,West,264,7.3,9.6,81,0.00,,SKC,0.00,VWS V14.01,2013-03-01 17:25:00,
2013-03-01 12:26:00,149.5,99.9,0.00,West,263,3.1,3.5,81,0.00,,SKC,0.00,VWS V14.01,2013-03-01 17:26:00,
2013-03-01 12:27:00,149.5,99.9,0.00,WSW,243,5.6,6.2,81,0.00,,SKC,0.00,VWS V14.01,2013-03-01 17:27:00,
2013-03-01 12:29:00,149.5,99.9,0.00,WSW,238,7.0,7.0,82,0.00,,SKC,0.00,VWS V14.01,2013-03-01 17:29:00,
2013-03-01 12:30:00,149.5,99.9,0.00,SW,217,4.3,5.3,82,0.00,,SKC,0.00,VWS V14.01,2013-03-01 17:30:00,
2013-03-01 12:32:00,149.5,99.9,0.00,WSW,248,7.6,7.6,82,0.00,,SKC,0.00,VWS V14.01,2013-03-01 17:32:00,
2013-03-01 12:34:00,149.5,99.9,0.00,WSW,253,9.4,9.4,82,0.00,,SKC,0.00,VWS V14.01,2013-03-01 17:34:00,
2013-03-01 12:35:00,149.5,99.9,0.00,West,263,7.4,7.4,82,0.00,,SKC,0.00,VWS V14.01,2013-03-01 17:35:00,
2013-03-01 12:37:00,149.5,99.9,0.00,WSW,250,6.6,7.8,82,0.00,,SKC,0.00,VWS V14.01,2013-03-01 17:37:00,
2013-03-01 12:39:00,149.5,99.9,0.00,West,263,4.3,4.3,81,0.00,,SKC,0.00,VWS V14.01,2013-03-01 17:39:00,
2013-03-01 12:41:00,149.5,99.9,0.00,West,263,4.4,6.5,81,0.00,,SKC,0.00,VWS V14.01,2013-03-01 17:41:00,
2013-03-01 12:42:00,149.5,99.9,0.00,West,281,3.7,3.7,82,0.00,,SKC,0.00,VWS V14.01,2013-03-01 17:42:00,
2013-03-01 12:44:00,149.5,99.9,0.00,NW,314,9.4,11.4,81,0.00,,SKC,0.00,VWS V14.01,2013-03-01 17:44:00,
2013-03-01 12:46:00,149.5,99.9,0.00,NNW,340,9.4,14.2,80,0.00,,SKC,0.00,VWS V14.01,2013-03-01 17:46:00,
2013-03-01 12:47:00,149.5,99.9,0.00,NW,326,6.7,14.5,69,0.00,,SKC,0.00,VWS V14.01,2013-03-01 17:47:00,
2013-03-01 12:49:00,149.5,99.9,0.00,SW,226,6.4,8.1,68,0.00,,SKC,0.00,VWS V14.01,2013-03-01 17:49:00,
2013-03-01 12:51:00,149.5,99.9,0.00,SW,232,2.8,4.1,72,0.00,,SKC,0.00,VWS V14.01,2013-03-01 17:51:00,
2013-03-01 12:52:00,149.5,99.9,0.00,SW,221,1.9,3.2,73,0.00,,SKC,0.00,VWS V14.01,2013-03-01 17:52:00,
2013-03-01 12:54:00,149.5,99.9,0.00,NE,37,1.1,4.5,71,0.00,,SKC,0.00,VWS V14.01,2013-03-01 17:54:00,
2013-03-01 12:56:00,149.5,99.9,0.00,North,6,9.9,15.4,71,0.00,,SKC,0.00,VWS V14.01,2013-03-01 17:56:00,
2013-03-01 12:57:00,149.5,99.9,0.00,NW,321,5.0,9.7,65,0.00,,SKC,0.00,VWS V14.01,2013-03-01 17:57:00,
2013-03-01 12:59:00,149.5,99.9,0.00,NNW,338,9.7,9.7,62,0.00,,SKC,0.00,VWS V14.01,2013-03-01 17:59:00,
2013-03-01 13:01:00,149.5,99.9,0.00,North,356,9.1,16.1,61,0.00,,SKC,0.00,VWS V14.01,2013-03-01 18:01:00,
2013-03-01 13:02:00,149.5,99.9,0.00,NNE,30,6.6,14.3,60,0.00,,SKC,0.00,VWS V14.01,2013-03-01 18:02:00,
2013-03-01 13:03:00,149.5,99.9,0.00,North,3,12.7,12.7,61,0.00,,SKC,0.00,VWS V14.01,2013-03-01 18:03:00,
2013-03-01 13:04:00,149.5,99.9,0.00,North,352,8.6,17.2,60,0.00,,SKC,0.00,VWS V14.01,2013-03-01 18:04:00,
2013-03-01 13:06:00,149.5,99.9,0.00,North,350,9.0,14.1,60,0.00,,SKC,0.00,VWS V14.01,2013-03-01 18:06:00,
2013-03-01 13:07:00,149.5,99.9,0.00,North,4,3.7,11.6,59,0.00,,SKC,0.00,VWS V14.01,2013-03-01 18:07:00,
2013-03-01 13:08:00,149.5,99.9,0.00,NNW,343,7.3,11.7,57,0.00,,SKC,0.00,VWS V14.01,2013-03-01 18:08:00,
2013-03-01 13:09:00,149.5,99.9,0.00,NNW,347,11.5,11.5,58,0.00,,SKC,0.00,VWS V14.01,2013-03-01 18:09:00,
2013-03-01 13:11:00,149.5,99.9,0.00,North,356,14.1,18.2,55,0.00,,SKC,0.00,VWS V14.01,2013-03-01 18:11:00,
2013-03-01 13:12:00,149.5,99.9,0.00,North,1,13.7,15.0,56,0.00,,SKC,0.00,VWS V14.01,2013-03-01 18:12:00,
2013-03-01 13:13:00,149.5,99.9,0.00,NNE,32,12.6,12.6,56,0.00,,SKC,0.00,VWS V14.01,2013-03-01 18:13:00,
2013-03-01 13:14:00,149.5,99.9,0.00,North,10,11.7,25.6,56,0.00,,SKC,0.00,VWS V14.01,2013-03-01 18:14:00,
2013-03-01 13:16:00,149.5,99.9,0.00,North,349,15.6,17.3,56,0.00,,SKC,0.00,VWS V14.01,2013-03-01 18:16:00,
2013-03-01 13:17:00,149.5,99.9,0.00,North,349,6.0,7.0,56,0.00,,SKC,0.00,VWS V14.01,2013-03-01 18:17:00,
2013-03-01 13:18:00,149.5,99.9,0.00,NNW,340,14.3,16.0,57,0.00,,SKC,0.00,VWS V14.01,2013-03-01 18:18:00,
2013-03-01 13:19:00,149.5,99.9,0.00,North,349,7.0,10.7,58,0.00,,SKC,0.00,VWS V14.01,2013-03-01 18:19:00,
2013-03-01 13:21:00,149.5,99.9,0.00,NNE,27,8.2,8.5,58,0.00,,SKC,0.00,VWS V14.01,2013-03-01 18:21:00,
2013-03-01 13:22:00,149.5,99.9,0.00,NNE,14,7.2,8.3,58,0.00,,SKC,0.00,VWS V14.01,2013-03-01 18:22:00,
2013-03-01 13:23:00,149.5,99.9,0.00,North,8,7.3,10.4,59,0.00,,SKC,0.00,VWS V14.01,2013-03-01 18:23:00,
2013-03-01 13:25:00,149.5,99.9,0.00,North,10,5.7,12.1,59,0.00,,SKC,0.00,VWS V14.01,2013-03-01 18:25:00,
2013-03-01 13:26:00,149.5,99.9,0.00,NNE,27,9.0,12.9,58,0.00,,SKC,0.00,VWS V14.01,2013-03-01 18:26:00,
2013-03-01 13:27:00,149.5,99.9,0.00,NNE,17,10.3,10.6,57,0.00,,SKC,0.00,VWS V14.01,2013-03-01 18:27:00,
2013-03-01 13:29:00,149.5,99.9,0.00,NNW,336,10.4,14.2,58,0.00,,SKC,0.00,VWS V14.01,2013-03-01 18:29:00,
2013-03-01 13:30:00,149.5,99.9,0.00,North,11,11.1,18.5,57,0.00,,SKC,0.00,VWS V14.01,2013-03-01 18:30:00,
2013-03-01 13:31:00,149.5,99.9,0.00,NNW,345,11.6,11.6,56,0.00,,SKC,0.00,VWS V14.01,2013-03-01 18:31:00,
2013-03-01 13:33:00,149.5,99.9,0.00,North,0,11.7,15.9,55,0.00,,SKC,0.00,VWS V14.01,2013-03-01 18:33:00,
2013-03-01 13:34:00,149.5,99.9,0.00,NW,323,9.4,15.8,56,0.00,,SKC,0.00,VWS V14.01,2013-03-01 18:34:00,
2013-03-01 13:35:00,149.5,99.9,0.00,NNW,335,8.6,13.0,56,0.00,,SKC,0.00,VWS V14.01,2013-03-01 18:35:00,
2013-03-01 13:36:00,149.5,99.9,0.00,NNW,333,10.5,10.5,56,0.00,,SKC,0.00,VWS V14.01,2013-03-01 18:36:00,
2013-03-01 13:38:00,149.5,99.9,0.00,North,7,12.5,15.6,56,0.00,,SKC,0.00,VWS V14.01,2013-03-01 18:38:00,
2013-03-01 13:39:00,149.5,99.9,0.00,NNE,13,10.2,14.3,55,0.00,,SKC,0.00,VWS V14.01,2013-03-01 18:39:00,
2013-03-01 13:40:00,149.5,99.9,0.00,NNW,342,19.8,19.8,54,0.00,,SKC,0.00,VWS V14.01,2013-03-01 18:40:00,
2013-03-01 13:41:00,149.5,99.9,0.00,NW,321,14.5,15.0,53,0.00,,SKC,0.00,VWS V14.01,2013-03-01 18:41:00,
2013-03-01 13:43:00,149.5,99.9,0.00,NNW,340,13.0,14.2,53,0.00,,SKC,0.00,VWS V14.01,2013-03-01 18:43:00,
2013-03-01 13:45:00,149.5,99.9,0.00,NNW,329,9.0,12.2,52,0.00,,SKC,0.00,VWS V14.01,2013-03-01 18:45:00,
2013-03-01 13:46:00,149.5,99.9,0.00,North,11,11.0,15.9,53,0.00,,SKC,0.00,VWS V14.01,2013-03-01 18:46:00,
2013-03-01 13:47:00,149.5,99.9,0.00,NNW,342,16.9,16.9,53,0.00,,SKC,0.00,VWS V14.01,2013-03-01 18:47:00,
2013-03-01 13:48:00,149.5,99.9,0.00,North,1,10.3,17.6,52,0.00,,SKC,0.00,VWS V14.01,2013-03-01 18:48:00,
2013-03-01 13:50:00,149.5,99.9,0.00,North,8,11.0,13.3,52,0.00,,SKC,0.00,VWS V14.01,2013-03-01 18:50:00,
2013-03-01 13:51:00,149.5,99.9,0.00,North,356,16.3,19.4,52,0.00,,SKC,0.00,VWS V14.01,2013-03-01 18:51:00,
2013-03-01 13:52:00,149.5,99.9,0.00,NNE,15,8.7,16.3,52,0.00,,SKC,0.00,VWS V14.01,2013-03-01 18:52:00,
2013-03-01 13:53:00,149.5,99.9,0.00,North,1,11.5,14.7,53,0.00,,SKC,0.00,VWS V14.01,2013-03-01 18:53:00,
2013-03-01 13:55:00,149.5,99.9,0.00,North,3,16.5,16.8,52,0.00,,SKC,0.00,VWS V14.01,2013-03-01 18:55:00,
2013-03-01 13:56:00,149.5,99.9,0.00,North,3,14.2,20.1,52,0.00,,SKC,0.00,VWS V14.01,2013-03-01 18:56:00,
2013-03-01 13:57:00,149.5,99.9,0.00,NNE,13,13.9,15.2,52,0.00,,SKC,0.00,VWS V14.01,2013-03-01 18:57:00,
2013-03-01 13:58:00,149.5,99.9,0.00,North,0,14.3,20.9,52,0.00,,SKC,0.00,VWS V14.01,2013-03-01 18:58:00,
2013-03-01 14:00:00,149.5,99.9,0.00,NNE,24,14.0,19.8,52,0.00,,SKC,0.00,VWS V14.01,2013-03-01 19:00:00,
2013-03-01 14:01:00,149.5,99.9,0.00,NNW,347,8.4,11.6,53,0.00,,SKC,0.00,VWS V14.01,2013-03-01 19:01:00,
2013-03-01 14:02:00,149.5,99.9,0.00,North,4,22.1,22.1,54,0.00,,SKC,0.00,VWS V14.01,2013-03-01 19:02:00,
2013-03-01 14:03:00,149.5,99.9,0.00,North,8,15.2,22.1,54,0.00,,SKC,0.00,VWS V14.01,2013-03-01 19:03:00,
2013-03-01 14:05:00,149.5,99.9,0.00,North,352,11.0,17.3,53,0.00,,SKC,0.00,VWS V14.01,2013-03-01 19:05:00,
2013-03-01 14:07:00,149.5,99.9,0.00,NNE,28,13.7,13.7,52,0.00,,SKC,0.00,VWS V14.01,2013-03-01 19:07:00,
2013-03-01 14:08:00,149.5,99.9,0.00,North,349,13.6,15.8,51,0.00,,SKC,0.00,VWS V14.01,2013-03-01 19:08:00,
2013-03-01 14:10:00,149.5,99.9,0.00,NNW,328,5.0,13.4,51,0.00,,SKC,0.00,VWS V14.01,2013-03-01 19:10:00,
2013-03-01 14:11:00,149.5,99.9,0.00,NNE,22,8.0,14.4,51,0.00,,SKC,0.00,VWS V14.01,2013-03-01 19:11:00,
2013-03-01 14:12:00,149.5,99.9,0.00,North,353,9.3,11.7,51,0.00,,SKC,0.00,VWS V14.01,2013-03-01 19:12:00,
2013-03-01 14:13:00,149.5,99.9,0.00,NW,325,9.7,11.7,50,0.00,,SKC,0.00,VWS V14.01,2013-03-01 19:13:00,
2013-03-01 14:15:00,149.5,99.9,0.00,North,349,11.6,12.1,52,0.00,,SKC,0.00,VWS V14.01,2013-03-01 19:15:00,
2013-03-01 14:17:00,149.5,99.9,0.00,NNW,338,10.6,20.9,51,0.00,,SKC,0.00,VWS V14.01,2013-03-01 19:17:00,
2013-03-01 14:18:00,149.5,99.9,0.00,North,1,15.7,17.1,50,0.00,,SKC,0.00,VWS V14.01,2013-03-01 19:18:00,
2013-03-01 14:20:00,149.5,99.9,0.00,NNE,14,12.2,13.3,50,0.00,,SKC,0.00,VWS V14.01,2013-03-01 19:20:00,
2013-03-01 14:22:00,149.5,99.9,0.00,NNE,30,14.1,23.1,49,0.00,,SKC,0.00,VWS V14.01,2013-03-01 19:22:00,
2013-03-01 14:23:00,149.5,99.9,0.00,NW,323,13.7,21.2,49,0.00,,SKC,0.00,VWS V14.01,2013-03-01 19:23:00,
2013-03-01 14:25:00,149.5,99.9,0.00,NNW,329,13.4,16.8,50,0.00,,SKC,0.00,VWS V14.01,2013-03-01 19:25:00,
2013-03-01 14:27:00,149.5,99.9,0.00,NNW,345,13.2,13.2,51,0.00,,SKC,0.00,VWS V14.01,2013-03-01 19:27:00,
2013-03-01 14:28:00,149.5,99.9,0.00,North,10,12.5,15.7,49,0.00,,SKC,0.00,VWS V14.01,2013-03-01 19:28:00,
2013-03-01 14:30:00,149.5,99.9,0.00,NW,321,13.0,16.6,49,0.00,,SKC,0.00,VWS V14.01,2013-03-01 19:30:00,
2013-03-01 14:32:00,149.5,99.9,0.00,NNW,336,14.1,18.4,49,0.00,,SKC,0.00,VWS V14.01,2013-03-01 19:32:00,
2013-03-01 14:33:00,149.5,99.9,0.00,NNW,345,7.8,11.7,49,0.00,,SKC,0.00,VWS V14.01,2013-03-01 19:33:00,
2013-03-01 14:34:00,149.5,99.9,0.00,NW,315,13.0,13.0,49,0.00,,SKC,0.00,VWS V14.01,2013-03-01 19:34:00,
2013-03-01 14:35:00,149.5,99.9,0.00,North,350,5.6,8.7,49,0.00,,SKC,0.00,VWS V14.01,2013-03-01 19:35:00,
2013-03-01 14:37:00,149.5,99.9,0.00,NNW,345,6.0,11.1,50,0.00,,SKC,0.00,VWS V14.01,2013-03-01 19:37:00,
2013-03-01 14:38:00,149.5,99.9,0.00,NNE,32,13.4,19.0,50,0.00,,SKC,0.00,VWS V14.01,2013-03-01 19:38:00,
2013-03-01 14:39:00,149.5,99.9,0.00,North,354,10.9,15.1,50,0.00,,SKC,0.00,VWS V14.01,2013-03-01 19:39:00,
2013-03-01 14:40:00,149.5,99.9,0.00,NW,318,20.2,20.3,48,0.00,,SKC,0.00,VWS V14.01,2013-03-01 19:40:00,
2013-03-01 14:42:00,149.5,99.9,0.00,NNW,342,19.4,19.4,49,0.00,,SKC,0.00,VWS V14.01,2013-03-01 19:42:00,
2013-03-01 14:43:00,149.5,99.9,0.00,NNW,342,17.0,17.0,49,0.00,,SKC,0.00,VWS V14.01,2013-03-01 19:43:00,
2013-03-01 14:44:00,149.5,99.9,0.00,North,7,17.2,18.5,49,0.00,,SKC,0.00,VWS V14.01,2013-03-01 19:44:00,
2013-03-01 14:46:00,149.5,99.9,0.00,NE,37,8.8,11.7,50,0.00,,SKC,0.00,VWS V14.01,2013-03-01 19:46:00,
2013-03-01 14:47:00,149.5,99.9,0.00,NE,35,7.6,16.3,48,0.00,,SKC,0.00,VWS V14.01,2013-03-01 19:47:00,
2013-03-01 14:48:00,149.5,99.9,0.00,NE,35,15.1,17.9,50,0.00,,SKC,0.00,VWS V14.01,2013-03-01 19:48:00,
2013-03-01 14:49:00,149.5,99.9,0.00,North,11,8.9,17.9,50,0.00,,SKC,0.00,VWS V14.01,2013-03-01 19:49:00,
2013-03-01 14:51:00,149.5,99.9,0.00,NNE,24,13.0,16.0,50,0.00,,SKC,0.00,VWS V14.01,2013-03-01 19:51:00,
2013-03-01 14:53:00,149.5,99.9,0.00,NNE,27,18.5,25.0,48,0.00,,SKC,0.00,VWS V14.01,2013-03-01 19:53:00,
2013-03-01 14:54:00,149.5,99.9,0.00,North,3,15.3,20.8,48,0.00,,SKC,0.00,VWS V14.01,2013-03-01 19:54:00,
2013-03-01 14:56:00,149.5,99.9,0.00,North,352,8.1,13.2,49,0.00,,SKC,0.00,VWS V14.01,2013-03-01 19:56:00,
2013-03-01 14:58:00,149.5,99.9,0.00,North,4,9.8,12.0,50,0.00,,SKC,0.00,VWS V14.01,2013-03-01 19:58:00,
2013-03-01 14:59:00,149.5,99.9,0.00,North,356,7.6,12.0,50,0.00,,SKC,0.00,VWS V14.01,2013-03-01 19:59:00,
2013-03-01 15:02:00,149.5,99.9,0.00,North,1,11.7,15.2,49,0.00,,SKC,0.00,VWS V14.01,2013-03-01 20:02:00,
2013-03-01 15:03:00,149.5,99.9,0.00,NNW,346,11.2,11.2,50,0.00,,SKC,0.00,VWS V14.01,2013-03-01 20:03:00,
2013-03-01 15:04:00,149.5,99.9,0.00,North,10,8.9,12.4,51,0.00,,SKC,0.00,VWS V14.01,2013-03-01 20:04:00,
2013-03-01 15:07:00,149.5,99.9,0.00,North,356,11.4,14.4,50,0.00,,SKC,0.00,VWS V14.01,2013-03-01 20:07:00,
2013-03-01 15:08:00,149.5,99.9,0.00,NNW,339,9.6,12.1,49,0.00,,SKC,0.00,VWS V14.01,2013-03-01 20:08:00,
2013-03-01 15:09:00,149.5,99.9,0.00,North,1,15.7,17.6,50,0.00,,SKC,0.00,VWS V14.01,2013-03-01 20:09:00,
2013-03-01 15:12:00,149.5,99.9,0.00,North,7,7.6,11.1,50,0.00,,SKC,0.00,VWS V14.01,2013-03-01 20:12:00,
2013-03-01 15:13:00,149.5,99.9,0.00,NW,315,11.4,16.3,50,0.00,,SKC,0.00,VWS V14.01,2013-03-01 20:13:00,
2013-03-01 15:14:00,149.5,99.9,0.00,WNW,302,12.8,18.4,49,0.00,,SKC,0.00,VWS V14.01,2013-03-01 20:14:00,
2013-03-01 15:17:00,149.5,99.9,0.00,North,350,16.4,17.2,50,0.00,,SKC,0.00,VWS V14.01,2013-03-01 20:17:00,
2013-03-01 15:18:00,149.5,99.9,0.00,NNE,27,18.4,20.6,48,0.00,,SKC,0.00,VWS V14.01,2013-03-01 20:18:00,
2013-03-01 15:19:00,149.5,99.9,0.00,NNE,30,7.3,15.8,48,0.00,,SKC,0.00,VWS V14.01,2013-03-01 20:19:00,
2013-03-01 15:22:00,149.5,99.9,0.00,NNE,13,15.0,16.5,48,0.00,,SKC,0.00,VWS V14.01,2013-03-01 20:22:00,
2013-03-01 15:23:00,149.5,99.9,0.00,NNW,343,9.3,18.8,48,0.00,,SKC,0.00,VWS V14.01,2013-03-01 20:23:00,
2013-03-01 15:24:00,149.5,99.9,0.00,NE,53,6.0,15.3,48,0.00,,SKC,0.00,VWS V14.01,2013-03-01 20:24:00,
2013-03-01 15:27:00,149.5,99.9,0.00,North,350,9.3,11.4,48,0.00,,SKC,0.00,VWS V14.01,2013-03-01 20:27:00,
2013-03-01 15:28:00,149.5,99.9,0.00,NW,322,14.4,21.2,48,0.00,,SKC,0.00,VWS V14.01,2013-03-01 20:28:00,
2013-03-01 15:29:00,149.5,99.9,0.00,NW,323,9.6,22.3,47,0.00,,SKC,0.00,VWS V14.01,2013-03-01 20:29:00,
2013-03-01 15:30:00,149.5,99.9,0.00,NNW,343,14.2,17.0,47,0.00,,SKC,0.00,VWS V14.01,2013-03-01 20:30:00,
2013-03-01 15:32:00,149.5,99.9,0.00,NNE,22,19.8,19.8,47,0.00,,SKC,0.00,VWS V14.01,2013-03-01 20:32:00,
2013-03-01 15:33:00,149.5,99.9,0.00,NNE,25,13.2,13.2,47,0.00,,SKC,0.00,VWS V14.01,2013-03-01 20:33:00,
2013-03-01 15:34:00,149.5,99.9,0.00,North,10,11.7,19.7,46,0.00,,SKC,0.00,VWS V14.01,2013-03-01 20:34:00,
2013-03-01 15:35:00,149.5,99.9,0.00,NNE,27,10.9,13.3,46,0.00,,SKC,0.00,VWS V14.01,2013-03-01 20:35:00,
2013-03-01 15:37:00,149.5,99.9,0.00,North,1,8.4,10.5,48,0.00,,SKC,0.00,VWS V14.01,2013-03-01 20:37:00,
2013-03-01 15:38:00,149.5,99.9,0.00,NNE,25,12.4,14.7,47,0.00,,SKC,0.00,VWS V14.01,2013-03-01 20:38:00,
2013-03-01 15:39:00,149.5,99.9,0.00,NE,42,7.9,11.4,47,0.00,,SKC,0.00,VWS V14.01,2013-03-01 20:39:00,
2013-03-01 15:40:00,149.5,99.9,0.00,NNE,32,6.2,11.4,47,0.00,,SKC,0.00,VWS V14.01,2013-03-01 20:40:00,
2013-03-01 15:42:00,149.5,99.9,0.00,North,6,11.4,13.2,47,0.00,,SKC,0.00,VWS V14.01,2013-03-01 20:42:00,
2013-03-01 15:43:00,149.5,99.9,0.00,NNE,21,4.0,6.5,46,0.00,,SKC,0.00,VWS V14.01,2013-03-01 20:43:00,
2013-03-01 15:44:00,149.5,99.9,0.00,NNW,332,15.8,18.4,47,0.00,,SKC,0.00,VWS V14.01,2013-03-01 20:44:00,
2013-03-01 15:45:00,149.5,99.9,0.00,NNW,340,14.7,18.4,47,0.00,,SKC,0.00,VWS V14.01,2013-03-01 20:45:00,
2013-03-01 15:47:00,149.5,99.9,0.00,NNE,20,12.9,19.2,47,0.00,,SKC,0.00,VWS V14.01,2013-03-01 20:47:00,
2013-03-01 15:48:00,149.5,99.9,0.00,NNE,27,10.3,11.2,46,0.00,,SKC,0.00,VWS V14.01,2013-03-01 20:48:00,
2013-03-01 15:49:00,149.5,99.9,0.00,North,352,11.2,12.7,47,0.00,,SKC,0.00,VWS V14.01,2013-03-01 20:49:00,
2013-03-01 15:50:00,149.5,99.9,0.00,NE,39,12.4,15.7,46,0.00,,SKC,0.00,VWS V14.01,2013-03-01 20:50:00,
2013-03-01 15:52:00,149.5,99.9,0.00,North,3,13.0,18.7,46,0.00,,SKC,0.00,VWS V14.01,2013-03-01 20:52:00,
2013-03-01 15:53:00,149.5,99.9,0.00,North,359,7.0,16.0,46,0.00,,SKC,0.00,VWS V14.01,2013-03-01 20:53:00,
2013-03-01 15:54:00,149.5,99.9,0.00,NNE,24,11.1,11.4,47,0.00,,SKC,0.00,VWS V14.01,2013-03-01 20:54:00,
2013-03-01 15:55:00,149.5,99.9,0.00,North,10,13.0,17.4,47,0.00,,SKC,0.00,VWS V14.01,2013-03-01 20:55:00,
2013-03-01 15:57:00,149.5,99.9,0.00,NNE,21,9.9,14.7,46,0.00,,SKC,0.00,VWS V14.01,2013-03-01 20:57:00,
2013-03-01 15:58:00,149.5,99.9,0.00,NNE,20,8.4,13.4,46,0.00,,SKC,0.00,VWS V14.01,2013-03-01 20:58:00,
2013-03-01 16:00:00,149.5,99.9,0.00,NNE,14,15.2,20.1,45,0.00,,SKC,0.00,VWS V14.01,2013-03-01 21:00:00,
2013-03-01 16:02:00,149.5,99.9,0.00,North,356,16.4,19.5,46,0.00,,SKC,0.00,VWS V14.01,2013-03-01 21:02:00,
2013-03-01 16:03:00,149.5,99.9,0.00,ENE,65,12.2,17.8,46,0.00,,SKC,0.00,VWS V14.01,2013-03-01 21:03:00,
2013-03-01 16:05:00,149.5,99.9,0.00,NNE,30,13.6,18.5,46,0.00,,SKC,0.00,VWS V14.01,2013-03-01 21:05:00,
2013-03-01 16:07:00,149.5,99.9,0.00,North,350,8.0,12.9,46,0.00,,SKC,0.00,VWS V14.01,2013-03-01 21:07:00,
2013-03-01 16:09:00,149.5,99.9,0.00,NNW,335,11.0,12.1,46,0.00,,SKC,0.00,VWS V14.01,2013-03-01 21:09:00,
2013-03-01 16:10:00,149.5,99.9,0.00,NNE,24,12.2,14.3,46,0.00,,SKC,0.00,VWS V14.01,2013-03-01 21:10:00,
2013-03-01 16:12:00,149.5,99.9,0.00,NNE,17,10.6,13.0,47,0.00,,SKC,0.00,VWS V14.01,2013-03-01 21:12:00,
2013-03-01 16:14:00,149.5,99.9,0.00,NNW,339,7.6,10.0,47,0.00,,SKC,0.00,VWS V14.01,2013-03-01 21:14:00,
2013-03-01 16:15:00,149.5,99.9,0.00,NNE,20,17.1,17.1,47,0.00,,SKC,0.00,VWS V14.01,2013-03-01 21:15:00,
2013-03-01 16:16:00,149.5,99.9,0.00,North,359,13.9,17.9,46,0.00,,SKC,0.00,VWS V14.01,2013-03-01 21:16:00,
2013-03-01 16:17:00,149.5,99.9,0.00,North,7,10.7,10.7,45,0.00,,SKC,0.00,VWS V14.01,2013-03-01 21:17:00,
2013-03-01 16:19:00,149.5,99.9,0.00,NE,34,15.3,15.3,45,0.00,,SKC,0.00,VWS V14.01,2013-03-01 21:19:00,
2013-03-01 16:20:00,149.5,99.9,0.00,NNE,22,8.0,15.3,46,0.00,,SKC,0.00,VWS V14.01,2013-03-01 21:20:00,
2013-03-01 16:21:00,149.5,99.9,0.00,North,7,11.5,13.7,46,0.00,,SKC,0.00,VWS V14.01,2013-03-01 21:21:00,
2013-03-01 16:22:00,149.5,99.9,0.00,NNE,31,17.0,17.0,45,0.00,,SKC,0.00,VWS V14.01,2013-03-01 21:22:00,
2013-03-01 16:24:00,149.5,99.9,0.00,NNE,20,9.3,12.0,46,0.00,,SKC,0.00,VWS V14.01,2013-03-01 21:24:00,
2013-03-01 16:25:00,149.5,99.9,0.00,NE,44,17.1,19.5,46,0.00,,SKC,0.00,VWS V14.01,2013-03-01 21:25:00,
2013-03-01 16:26:00,149.5,99.9,0.00,NNE,14,21.1,24.9,46,0.00,,SKC,0.00,VWS V14.01,2013-03-01 21:26:00,
2013-03-01 16:28:00,149.5,99.9,0.00,North,0,14.2,22.2,46,0.00,,SKC,0.00,VWS V14.01,2013-03-01 21:28:00,
2013-03-01 16:29:00,149.5,99.9,0.00,NNE,28,10.2,14.2,47,0.00,,SKC,0.00,VWS V14.01,2013-03-01 21:29:00,
2013-03-01 16:30:00,149.5,99.9,0.00,NNE,22,16.0,16.0,47,0.00,,SKC,0.00,VWS V14.01,2013-03-01 21:30:00,
2013-03-01 16:31:00,149.5,99.9,0.00,NE,37,13.1,15.3,47,0.00,,SKC,0.00,VWS V14.01,2013-03-01 21:31:00,
2013-03-01 16:33:00,149.5,99.9,0.00,North,357,11.2,13.6,47,0.00,,SKC,0.00,VWS V14.01,2013-03-01 21:33:00,
2013-03-01 16:35:00,149.5,99.9,0.00,NNE,22,9.9,17.0,46,0.00,,SKC,0.00,VWS V14.01,2013-03-01 21:35:00,
2013-03-01 16:36:00,149.5,99.9,0.00,NNE,18,14.2,14.2,46,0.00,,SKC,0.00,VWS V14.01,2013-03-01 21:36:00,
2013-03-01 16:38:00,149.5,99.9,0.00,NE,44,11.9,16.3,47,0.00,,SKC,0.00,VWS V14.01,2013-03-01 21:38:00,
2013-03-01 16:40:00,149.5,99.9,0.00,NNE,28,11.9,17.1,46,0.00,,SKC,0.00,VWS V14.01,2013-03-01 21:40:00,
2013-03-01 16:41:00,149.5,99.9,0.00,East,90,5.8,16.2,47,0.00,,SKC,0.00,VWS V14.01,2013-03-01 21:41:00,
2013-03-01 16:43:00,149.5,99.9,0.00,NNE,13,10.9,12.6,47,0.00,,SKC,0.00,VWS V14.01,2013-03-01 21:43:00,
2013-03-01 16:45:00,149.5,99.9,0.00,NNE,20,17.9,21.6,46,0.00,,SKC,0.00,VWS V14.01,2013-03-01 21:45:00,
2013-03-01 16:46:00,149.5,99.9,0.00,NNE,14,18.1,18.1,46,0.00,,SKC,0.00,VWS V14.01,2013-03-01 21:46:00,
2013-03-01 16:48:00,149.5,99.9,0.00,NNE,24,16.2,18.6,46,0.00,,SKC,0.00,VWS V14.01,2013-03-01 21:48:00,
2013-03-01 16:50:00,149.5,99.9,0.00,NE,49,10.5,10.5,47,0.00,,SKC,0.00,VWS V14.01,2013-03-01 21:50:00,
2013-03-01 16:51:00,149.5,99.9,0.00,North,7,19.8,22.1,47,0.00,,SKC,0.00,VWS V14.01,2013-03-01 21:51:00,
2013-03-01 16:54:00,149.5,99.9,0.00,North,349,12.5,13.1,47,0.00,,SKC,0.00,VWS V14.01,2013-03-01 21:54:00,
2013-03-01 16:55:00,149.5,99.9,0.00,North,3,10.6,15.0,46,0.00,,SKC,0.00,VWS V14.01,2013-03-01 21:55:00,
2013-03-01 16:56:00,149.5,99.9,0.00,NNE,15,16.1,16.1,47,0.00,,SKC,0.00,VWS V14.01,2013-03-01 21:56:00,
2013-03-01 16:59:00,149.5,99.9,0.00,NNW,346,8.8,13.7,46,0.00,,SKC,0.00,VWS V14.01,2013-03-01 21:59:00,
2013-03-01 17:00:00,149.5,99.9,0.00,North,11,8.2,22.2,46,0.00,,SKC,0.00,VWS V14.01,2013-03-01 22:00:00,
2013-03-01 17:01:00,149.5,99.9,0.00,North,4,15.5,21.2,46,0.00,,SKC,0.00,VWS V14.01,2013-03-01 22:01:00,
2013-03-01 17:04:00,149.5,99.9,0.00,NNE,27,18.5,18.5,47,0.00,,SKC,0.00,VWS V14.01,2013-03-01 22:04:00,
2013-03-01 17:05:00,149.5,99.9,0.00,NNE,17,12.6,20.8,46,0.00,,SKC,0.00,VWS V14.01,2013-03-01 22:05:00,
2013-03-01 17:06:00,149.5,99.9,0.00,NE,51,9.8,14.9,46,0.00,,SKC,0.00,VWS V14.01,2013-03-01 22:06:00,
2013-03-01 17:09:00,149.5,99.9,0.00,NE,45,12.3,14.0,47,0.00,,SKC,0.00,VWS V14.01,2013-03-01 22:09:00,
2013-03-01 17:10:00,149.5,99.9,0.00,ENE,75,8.0,15.8,47,0.00,,SKC,0.00,VWS V14.01,2013-03-01 22:10:00,
2013-03-01 17:11:00,149.5,99.9,0.00,NE,37,9.6,9.6,47,0.00,,SKC,0.00,VWS V14.01,2013-03-01 22:11:00,
2013-03-01 17:14:00,149.5,99.9,0.00,NE,51,6.5,10.3,48,0.00,,SKC,0.00,VWS V14.01,2013-03-01 22:14:00,
2013-03-01 17:15:00,149.5,99.9,0.00,NE,44,8.9,12.4,48,0.00,,SKC,0.00,VWS V14.01,2013-03-01 22:15:00,
2013-03-01 17:16:00,149.5,99.9,0.00,NE,55,7.3,12.4,48,0.00,,SKC,0.00,VWS V14.01,2013-03-01 22:16:00,
2013-03-01 17:19:00,149.5,99.9,0.00,NNE,17,12.9,15.6,47,0.00,,SKC,0.00,VWS V14.01,2013-03-01 22:19:00,
2013-03-01 17:20:00,149.5,99.9,0.00,North,352,8.0,16.0,47,0.00,,SKC,0.00,VWS V14.01,2013-03-01 22:20:00,
2013-03-01 17:21:00,149.5,99.9,0.00,NNE,30,9.3,11.2,47,0.00,,SKC,0.00,VWS V14.01,2013-03-01 22:21:00,
2013-03-01 17:22:00,149.5,99.9,0.00,NE,37,12.6,12.6,47,0.00,,SKC,0.00,VWS V14.01,2013-03-01 22:22:00,
2013-03-01 17:24:00,149.5,99.9,0.00,NE,38,12.4,15.3,47,0.00,,SKC,0.00,VWS V14.01,2013-03-01 22:24:00,
2013-03-01 17:25:00,149.5,99.9,0.00,NE,55,13.0,13.9,48,0.00,,SKC,0.00,VWS V14.01,2013-03-01 22:25:00,
2013-03-01 17:26:00,149.5,99.9,0.00,NE,56,11.1,11.1,48,0.00,,SKC,0.00,VWS V14.01,2013-03-01 22:26:00,
2013-03-01 17:27:00,149.5,99.9,0.00,NE,42,14.0,15.3,48,0.00,,SKC,0.00,VWS V14.01,2013-03-01 22:27:00,
2013-03-01 17:30:00,149.5,99.9,0.00,NNE,22,15.6,15.6,48,0.00,,SKC,0.00,VWS V14.01,2013-03-01 22:30:00,
2013-03-01 17:32:00,149.5,99.9,0.00,NE,55,9.5,10.6,47,0.00,,SKC,0.00,VWS V14.01,2013-03-01 22:32:00,
2013-03-01 17:35:00,149.5,99.9,0.00,North,356,10.4,15.2,48,0.00,,SKC,0.00,VWS V14.01,2013-03-01 22:35:00,
2013-03-01 17:37:00,149.5,99.9,0.00,NE,41,9.7,12.1,49,0.00,,SKC,0.00,VWS V14.01,2013-03-01 22:37:00,
2013-03-01 17:40:00,149.5,99.9,0.00,NNE,13,11.2,14.5,49,0.00,,SKC,0.00,VWS V14.01,2013-03-01 22:40:00,
2013-03-01 17:41:00,149.5,99.9,0.00,NE,49,16.1,16.1,49,0.00,,SKC,0.00,VWS V14.01,2013-03-01 22:41:00,
2013-03-01 17:42:00,149.5,99.9,0.00,NNE,15,11.2,16.0,49,0.00,,SKC,0.00,VWS V14.01,2013-03-01 22:42:00,
2013-03-01 17:45:00,149.5,99.9,0.00,North,359,9.6,10.6,50,0.00,,SKC,0.00,VWS V14.01,2013-03-01 22:45:00,
2013-03-01 17:46:00,149.5,99.9,0.00,North,353,18.0,20.3,50,0.00,,SKC,0.00,VWS V14.01,2013-03-01 22:46:00,
2013-03-01 17:47:00,149.5,99.9,0.00,North,357,12.6,15.0,49,0.00,,SKC,0.00,VWS V14.01,2013-03-01 22:47:00,
2013-03-01 17:50:00,149.5,99.9,0.00,NE,41,11.4,18.0,49,0.00,,SKC,0.00,VWS V14.01,2013-03-01 22:50:00,
2013-03-01 17:51:00,149.5,99.9,0.00,NE,52,11.7,16.7,49,0.00,,SKC,0.00,VWS V14.01,2013-03-01 22:51:00,
2013-03-01 17:52:00,149.5,99.9,0.00,NE,53,7.6,11.6,49,0.00,,SKC,0.00,VWS V14.01,2013-03-01 22:52:00,
2013-03-01 17:55:00,149.5,99.9,0.00,ENE,60,9.3,12.4,49,0.00,,SKC,0.00,VWS V14.01,2013-03-01 22:55:00,
2013-03-01 17:56:00,149.5,99.9,0.00,ENE,59,7.3,10.7,49,0.00,,SKC,0.00,VWS V14.01,2013-03-01 22:56:00,
2013-03-01 17:57:00,149.5,99.9,0.00,NE,49,6.2,7.0,50,0.00,,SKC,0.00,VWS V14.01,2013-03-01 22:57:00,
2013-03-01 18:00:00,149.5,99.9,0.00,ENE,60,7.6,9.6,49,0.00,,SKC,0.00,VWS V14.01,2013-03-01 23:00:00,
2013-03-01 18:01:00,149.5,99.9,0.00,NE,35,13.8,13.8,49,0.00,,SKC,0.00,VWS V14.01,2013-03-01 23:01:00,
2013-03-01 18:02:00,149.5,99.9,0.00,NNE,31,8.7,19.8,48,0.00,,SKC,0.00,VWS V14.01,2013-03-01 23:02:00,
2013-03-01 18:05:00,149.5,99.9,0.00,NE,41,8.5,12.8,49,0.00,,SKC,0.00,VWS V14.01,2013-03-01 23:05:00,
2013-03-01 18:06:00,149.5,99.9,0.00,North,3,12.2,14.4,49,0.00,,SKC,0.00,VWS V14.01,2013-03-01 23:06:00,
2013-03-01 18:07:00,149.5,99.9,0.00,NNE,17,16.9,16.9,48,0.00,,SKC,0.00,VWS V14.01,2013-03-01 23:07:00,
2013-03-01 18:10:00,149.5,99.9,0.00,NNE,17,21.2,21.2,48,0.00,,SKC,0.00,VWS V14.01,2013-03-01 23:10:00,
2013-03-01 18:11:00,149.5,99.9,0.00,NE,45,15.5,22.5,48,0.00,,SKC,0.00,VWS V14.01,2013-03-01 23:11:00,
2013-03-01 18:12:00,149.5,99.9,0.00,ENE,60,9.0,15.7,48,0.00,,SKC,0.00,VWS V14.01,2013-03-01 23:12:00,
2013-03-01 18:15:00,149.5,99.9,0.00,NE,56,8.8,9.3,48,0.00,,SKC,0.00,VWS V14.01,2013-03-01 23:15:00,
2013-03-01 18:16:00,149.5,99.9,0.00,NE,44,9.1,10.8,48,0.00,,SKC,0.00,VWS V14.01,2013-03-01 23:16:00,
2013-03-01 18:17:00,149.5,99.9,0.00,ENE,73,7.8,8.8,48,0.00,,SKC,0.00,VWS V14.01,2013-03-01 23:17:00,
2013-03-01 18:20:00,149.5,99.9,0.00,NE,42,7.7,9.0,48,0.00,,SKC,0.00,VWS V14.01,2013-03-01 23:20:00,
2013-03-01 18:21:00,149.5,99.9,0.00,North,4,11.7,13.2,49,0.00,,SKC,0.00,VWS V14.01,2013-03-01 23:21:00,
2013-03-01 18:22:00,149.5,99.9,0.00,North,350,11.8,11.8,49,0.00,,SKC,0.00,VWS V14.01,2013-03-01 23:22:00,
2013-03-01 18:23:00,149.5,99.9,0.00,NE,41,8.7,12.2,49,0.00,,SKC,0.00,VWS V14.01,2013-03-01 23:23:00,
2013-03-01 18:25:00,149.5,99.9,0.00,NNE,18,12.6,16.2,48,0.00,,SKC,0.00,VWS V14.01,2013-03-01 23:25:00,
2013-03-01 18:26:00,149.5,99.9,0.00,ENE,65,16.1,16.1,48,0.00,,SKC,0.00,VWS V14.01,2013-03-01 23:26:00,
2013-03-01 18:27:00,149.5,99.9,0.00,NE,34,15.3,15.3,48,0.00,,SKC,0.00,VWS V14.01,2013-03-01 23:27:00,
2013-03-01 18:28:00,149.5,99.9,0.00,NNE,30,10.8,15.3,49,0.00,,SKC,0.00,VWS V14.01,2013-03-01 23:28:00,
2013-03-01 18:30:00,149.5,99.9,0.00,North,359,9.7,11.7,49,0.00,,SKC,0.00,VWS V14.01,2013-03-01 23:30:00,
2013-03-01 18:31:00,149.5,99.9,0.00,NE,44,13.8,14.8,49,0.00,,SKC,0.00,VWS V14.01,2013-03-01 23:31:00,
2013-03-01 18:32:00,149.5,99.9,0.00,NNE,13,16.8,16.9,48,0.00,,SKC,0.00,VWS V14.01,2013-03-01 23:32:00,
2013-03-01 18:33:00,149.5,99.9,0.00,NNE,24,10.7,21.5,48,0.00,,SKC,0.00,VWS V14.01,2013-03-01 23:33:00,
2013-03-01 18:36:00,149.5,99.9,0.00,NNE,14,12.5,15.2,48,0.00,,SKC,0.00,VWS V14.01,2013-03-01 23:36:00,
2013-03-01 18:38:00,149.5,99.9,0.00,NE,42,18.3,18.3,49,0.00,,SKC,0.00,VWS V14.01,2013-03-01 23:38:00,
2013-03-01 18:41:00,149.5,99.9,0.00,NE,42,13.7,15.2,48,0.00,,SKC,0.00,VWS V14.01,2013-03-01 23:41:00,
2013-03-01 18:43:00,149.5,99.9,0.00,ENE,59,8.6,12.6,48,0.00,,SKC,0.00,VWS V14.01,2013-03-01 23:43:00,
2013-03-01 18:44:00,149.5,99.9,0.00,North,6,13.0,14.3,48,0.00,,SKC,0.00,VWS V14.01,2013-03-01 23:44:00,
2013-03-01 18:46:00,149.5,99.9,0.00,North,1,12.2,12.2,49,0.00,,SKC,0.00,VWS V14.01,2013-03-01 23:46:00,
2013-03-01 18:48:00,149.5,99.9,0.00,North,4,13.4,13.4,48,0.00,,SKC,0.00,VWS V14.01,2013-03-01 23:48:00,
2013-03-01 18:49:00,149.5,99.9,0.00,NNE,18,9.1,13.4,48,0.00,,SKC,0.00,VWS V14.01,2013-03-01 23:49:00,
2013-03-01 18:51:00,149.5,99.9,0.00,North,10,8.8,12.9,49,0.00,,SKC,0.00,VWS V14.01,2013-03-01 23:51:00,
2013-03-01 18:53:00,149.5,99.9,0.00,North,6,10.9,15.7,48,0.00,,SKC,0.00,VWS V14.01,2013-03-01 23:53:00,
2013-03-01 18:54:00,149.5,99.9,0.00,NNE,15,10.1,10.1,48,0.00,,SKC,0.00,VWS V14.01,2013-03-01 23:54:00,
2013-03-01 18:57:00,149.5,99.9,0.00,NE,37,8.9,12.6,49,0.00,,SKC,0.00,VWS V14.01,2013-03-01 23:57:00,
2013-03-01 18:58:00,149.5,99.9,0.00,NE,44,8.8,10.1,49,0.00,,SKC,0.00,VWS V14.01,2013-03-01 23:58:00,
2013-03-01 18:59:00,149.5,99.9,0.00,NNW,345,11.1,11.2,49,0.00,,SKC,0.00,VWS V14.01,2013-03-01 23:59:00,
2013-03-01 19:01:00,149.5,99.9,0.00,NNE,30,9.0,14.1,50,0.00,,SKC,0.00,VWS V14.01,2013-03-02 00:01:00,
2013-03-01 19:02:00,149.5,99.9,0.00,NNE,20,13.0,14.1,50,0.00,,SKC,0.00,VWS V14.01,2013-03-02 00:02:00,
2013-03-01 19:03:00,149.5,99.9,0.00,North,359,9.5,9.5,50,0.00,,SKC,0.00,VWS V14.01,2013-03-02 00:03:00,
2013-03-01 19:04:00,149.5,99.9,0.00,NE,41,6.8,8.6,50,0.00,,SKC,0.00,VWS V14.01,2013-03-02 00:04:00,
2013-03-01 19:06:00,149.5,99.9,0.00,NNE,18,10.4,10.7,50,0.00,,SKC,0.00,VWS V14.01,2013-03-02 00:06:00,
2013-03-01 19:07:00,149.5,99.9,0.00,NE,34,5.5,10.7,50,0.00,,SKC,0.00,VWS V14.01,2013-03-02 00:07:00,
2013-03-01 19:08:00,149.5,99.9,0.00,NE,34,11.9,12.3,51,0.00,,SKC,0.00,VWS V14.01,2013-03-02 00:08:00,
2013-03-01 19:09:00,149.5,99.9,0.00,North,8,9.8,11.6,51,0.00,,SKC,0.00,VWS V14.01,2013-03-02 00:09:00,
2013-03-01 19:11:00,149.5,99.9,0.00,NNE,21,7.0,11.5,51,0.00,,SKC,0.00,VWS V14.01,2013-03-02 00:11:00,
2013-03-01 19:12:00,149.5,99.9,0.00,NNE,22,6.9,11.5,51,0.00,,SKC,0.00,VWS V14.01,2013-03-02 00:12:00,
2013-03-01 19:13:00,149.5,99.9,0.00,NNE,20,7.9,9.0,52,0.00,,SKC,0.00,VWS V14.01,2013-03-02 00:13:00,
2013-03-01 19:14:00,149.5,99.9,0.00,North,7,8.5,9.9,52,0.00,,SKC,0.00,VWS V14.01,2013-03-02 00:14:00,
2013-03-01 19:17:00,149.5,99.9,0.00,NNE,15,7.8,8.8,52,0.00,,SKC,0.00,VWS V14.01,2013-03-02 00:17:00,
2013-03-01 19:19:00,149.5,99.9,0.00,NNE,17,11.5,12.3,52,0.00,,SKC,0.00,VWS V14.01,2013-03-02 00:19:00,
2013-03-01 19:22:00,149.5,99.9,0.00,NNE,25,12.0,14.0,52,0.00,,SKC,0.00,VWS V14.01,2013-03-02 00:22:00,
2013-03-01 19:24:00,149.5,99.9,0.00,NNE,15,8.7,10.1,52,0.00,,SKC,0.00,VWS V14.01,2013-03-02 00:24:00,
2013-03-01 19:27:00,149.5,99.9,0.00,NNE,14,10.7,15.5,52,0.00,,SKC,0.00,VWS V14.01,2013-03-02 00:27:00,
2013-03-01 19:29:00,149.5,99.9,0.00,North,7,8.6,15.8,52,0.00,,SKC,0.00,VWS V14.01,2013-03-02 00:29:00,
2013-03-01 19:32:00,149.5,99.9,0.00,NNE,18,8.5,14.0,52,0.00,,SKC,0.00,VWS V14.01,2013-03-02 00:32:00,
2013-03-01 19:34:00,149.5,99.9,0.00,North,6,9.6,11.6,52,0.00,,SKC,0.00,VWS V14.01,2013-03-02 00:34:00,
2013-03-01 19:35:00,149.5,99.9,0.00,North,10,7.6,9.7,52,0.00,,SKC,0.00,VWS V14.01,2013-03-02 00:35:00,
2013-03-01 19:37:00,149.5,99.9,0.00,NNE,14,12.7,13.0,52,0.00,,SKC,0.00,VWS V14.01,2013-03-02 00:37:00,
2013-03-01 19:39:00,149.5,99.9,0.00,North,6,8.9,8.9,52,0.00,,SKC,0.00,VWS V14.01,2013-03-02 00:39:00,
2013-03-01 19:40:00,149.5,99.9,0.00,NE,35,8.6,13.3,52,0.00,,SKC,0.00,VWS V14.01,2013-03-02 00:40:00,
2013-03-01 19:42:00,149.5,99.9,0.00,North,11,10.7,14.0,52,0.00,,SKC,0.00,VWS V14.01,2013-03-02 00:42:00,
2013-03-01 19:44:00,149.5,99.9,0.00,NE,53,7.3,10.3,52,0.00,,SKC,0.00,VWS V14.01,2013-03-02 00:44:00,
2013-03-01 19:45:00,149.5,99.9,0.00,NNE,21,6.6,8.5,53,0.00,,SKC,0.00,VWS V14.01,2013-03-02 00:45:00,
2013-03-01 19:47:00,149.5,99.9,0.00,North,11,7.8,11.8,53,0.00,,SKC,0.00,VWS V14.01,2013-03-02 00:47:00,
2013-03-01 19:49:00,149.5,99.9,0.00,North,359,8.8,9.0,53,0.00,,SKC,0.00,VWS V14.01,2013-03-02 00:49:00,
2013-03-01 19:50:00,149.5,99.9,0.00,NNE,21,7.8,9.3,54,0.00,,SKC,0.00,VWS V14.01,2013-03-02 00:50:00,
2013-03-01 19:52:00,149.5,99.9,0.00,NNE,15,8.3,9.1,54,0.00,,SKC,0.00,VWS V14.01,2013-03-02 00:52:00,
2013-03-01 19:53:00,149.5,99.9,0.00,NNE,31,5.9,8.9,54,0.00,,SKC,0.00,VWS V14.01,2013-03-02 00:53:00,
2013-03-01 19:54:00,149.5,99.9,0.00,NNE,21,5.9,8.3,54,0.00,,SKC,0.00,VWS V14.01,2013-03-02 00:54:00,
2013-03-01 19:55:00,149.5,99.9,0.00,NNE,31,7.2,7.4,55,0.00,,SKC,0.00,VWS V14.01,2013-03-02 00:55:00,
2013-03-01 19:57:00,149.5,99.9,0.00,North,359,12.5,13.6,55,0.00,,SKC,0.00,VWS V14.01,2013-03-02 00:57:00,
2013-03-01 19:58:00,149.5,99.9,0.00,North,7,11.3,13.4,55,0.00,,SKC,0.00,VWS V14.01,2013-03-02 00:58:00,
2013-03-01 19:59:00,149.5,99.9,0.00,NNE,13,7.6,10.3,55,0.00,,SKC,0.00,VWS V14.01,2013-03-02 00:59:00,
2013-03-01 20:00:00,149.5,99.9,0.00,NNE,13,9.3,13.4,55,0.00,,SKC,0.00,VWS V14.01,2013-03-02 01:00:00,
2013-03-01 20:02:00,149.5,99.9,0.00,NE,48,8.0,10.1,56,0.00,,SKC,0.00,VWS V14.01,2013-03-02 01:02:00,
2013-03-01 20:03:00,149.5,99.9,0.00,NNE,13,8.9,9.4,56,0.00,,SKC,0.00,VWS V14.01,2013-03-02 01:03:00,
2013-03-01 20:04:00,149.5,99.9,0.00,NE,37,7.2,7.2,56,0.00,,SKC,0.00,VWS V14.01,2013-03-02 01:04:00,
2013-03-01 20:05:00,149.5,99.9,0.00,North,359,7.2,9.4,56,0.00,,SKC,0.00,VWS V14.01,2013-03-02 01:05:00,
2013-03-01 20:07:00,149.5,99.9,0.00,North,6,9.1,10.6,57,0.00,,SKC,0.00,VWS V14.01,2013-03-02 01:07:00,
2013-03-01 20:08:00,149.5,99.9,0.00,North,3,10.1,10.6,57,0.00,,SKC,0.00,VWS V14.01,2013-03-02 01:08:00,
2013-03-01 20:09:00,149.5,99.9,0.00,NNE,14,8.5,8.8,57,0.00,,SKC,0.00,VWS V14.01,2013-03-02 01:09:00,
2013-03-01 20:10:00,149.5,99.9,0.00,NE,39,10.2,10.2,57,0.00,,SKC,0.00,VWS V14.01,2013-03-02 01:10:00,
2013-03-01 20:12:00,149.5,99.9,0.00,NNE,21,9.9,10.5,57,0.00,,SKC,0.00,VWS V14.01,2013-03-02 01:12:00,
2013-03-01 20:13:00,149.5,99.9,0.00,North,3,9.1,11.1,58,0.00,,SKC,0.00,VWS V14.01,2013-03-02 01:13:00,
2013-03-01 20:14:00,149.5,99.9,0.00,North,1,11.1,14.0,58,0.00,,SKC,0.00,VWS V14.01,2013-03-02 01:14:00,
2013-03-01 20:15:00,149.5,99.9,0.00,North,3,7.2,14.0,58,0.00,,SKC,0.00,VWS V14.01,2013-03-02 01:15:00,
2013-03-01 20:18:00,149.5,99.9,0.00,North,356,6.8,9.1,58,0.00,,SKC,0.00,VWS V14.01,2013-03-02 01:18:00,
2013-03-01 20:19:00,149.5,99.9,0.00,NNE,18,8.2,9.1,58,0.00,,SKC,0.00,VWS V14.01,2013-03-02 01:19:00,
2013-03-01 20:20:00,149.5,99.9,0.00,NNE,18,9.3,10.1,58,0.00,,SKC,0.00,VWS V14.01,2013-03-02 01:20:00,
2013-03-01 20:23:00,149.5,99.9,0.00,NE,38,7.8,11.8,59,0.00,,SKC,0.00,VWS V14.01,2013-03-02 01:23:00,
2013-03-01 20:25:00,149.5,99.9,0.00,NNE,13,9.0,11.2,59,0.00,,SKC,0.00,VWS V14.01,2013-03-02 01:25:00,
2013-03-01 20:28:00,149.5,99.9,0.00,NE,39,7.1,11.8,60,0.00,,SKC,0.00,VWS V14.01,2013-03-02 01:28:00,
2013-03-01 20:30:00,149.5,99.9,0.00,NNE,24,6.3,9.6,60,0.00,,SKC,0.00,VWS V14.01,2013-03-02 01:30:00,
2013-03-01 20:33:00,149.5,99.9,0.00,North,3,6.8,8.9,61,0.00,,SKC,0.00,VWS V14.01,2013-03-02 01:33:00,
2013-03-01 20:35:00,149.5,99.9,0.00,NNE,25,5.5,8.8,61,0.00,,SKC,0.00,VWS V14.01,2013-03-02 01:35:00,
2013-03-01 20:38:00,149.5,99.9,0.00,NNE,13,6.3,9.4,62,0.00,,SKC,0.00,VWS V14.01,2013-03-02 01:38:00,
2013-03-01 20:40:00,149.5,99.9,0.00,NNE,15,5.3,9.3,62,0.00,,SKC,0.00,VWS V14.01,2013-03-02 01:40:00,
2013-03-01 20:43:00,149.5,99.9,0.00,North,1,9.4,9.4,62,0.00,,SKC,0.00,VWS V14.01,2013-03-02 01:43:00,
2013-03-01 20:45:00,149.5,99.9,0.00,NNE,13,7.1,10.0,62,0.00,,SKC,0.00,VWS V14.01,2013-03-02 01:45:00,
2013-03-01 20:48:00,149.5,99.9,0.00,NE,35,9.3,9.8,62,0.00,,SKC,0.00,VWS V14.01,2013-03-02 01:48:00,
2013-03-01 20:50:00,149.5,99.9,0.00,NNE,22,6.3,11.6,62,0.00,,SKC,0.00,VWS V14.01,2013-03-02 01:50:00,
2013-03-01 20:53:00,149.5,99.9,0.00,North,6,6.2,7.7,62,0.00,,SKC,0.00,VWS V14.01,2013-03-02 01:53:00,
2013-03-01 20:55:00,149.5,99.9,0.00,NE,39,8.9,14.0,62,0.00,,SKC,0.00,VWS V14.01,2013-03-02 01:55:00,
2013-03-01 20:58:00,149.5,99.9,0.00,North,10,8.6,10.3,63,0.00,,SKC,0.00,VWS V14.01,2013-03-02 01:58:00,
2013-03-01 20:59:00,149.5,99.9,0.00,NNE,28,10.7,10.7,63,0.00,,SKC,0.00,VWS V14.01,2013-03-02 01:59:00,
2013-03-01 21:00:00,149.5,99.9,0.00,NE,35,9.3,9.9,63,0.00,,SKC,0.00,VWS V14.01,2013-03-02 02:00:00,
2013-03-01 21:01:00,149.5,99.9,0.00,North,356,7.6,9.7,63,0.00,,SKC,0.00,VWS V14.01,2013-03-02 02:01:00,
2013-03-01 21:04:00,149.5,99.9,0.00,NNE,31,7.9,9.8,63,0.00,,SKC,0.00,VWS V14.01,2013-03-02 02:04:00,
2013-03-01 21:05:00,149.5,99.9,0.00,North,7,7.0,11.3,63,0.00,,SKC,0.00,VWS V14.01,2013-03-02 02:05:00,
2013-03-01 21:06:00,149.5,99.9,0.00,NNE,15,7.6,9.7,63,0.00,,SKC,0.00,VWS V14.01,2013-03-02 02:06:00,
2013-03-01 21:09:00,149.5,99.9,0.00,NNE,13,10.1,10.7,64,0.00,,SKC,0.00,VWS V14.01,2013-03-02 02:09:00,
2013-03-01 21:10:00,149.5,99.9,0.00,NE,37,9.1,10.4,64,0.00,,SKC,0.00,VWS V14.01,2013-03-02 02:10:00,
2013-03-01 21:11:00,149.5,99.9,0.00,North,8,9.4,9.5,64,0.00,,SKC,0.00,VWS V14.01,2013-03-02 02:11:00,
2013-03-01 21:14:00,149.5,99.9,0.00,North,1,12.5,13.4,64,0.00,,SKC,0.00,VWS V14.01,2013-03-02 02:14:00,
2013-03-01 21:15:00,149.5,99.9,0.00,NNE,13,11.0,15.0,64,0.00,,SKC,0.00,VWS V14.01,2013-03-02 02:15:00,
2013-03-01 21:16:00,149.5,99.9,0.00,North,6,7.1,8.4,64,0.00,,SKC,0.00,VWS V14.01,2013-03-02 02:16:00,
2013-03-01 21:19:00,149.5,99.9,0.00,NNE,21,10.7,10.7,64,0.00,,SKC,0.00,VWS V14.01,2013-03-02 02:19:00,
2013-03-01 21:20:00,149.5,99.9,0.00,NNE,20,8.7,17.7,64,0.00,,SKC,0.00,VWS V14.01,2013-03-02 02:20:00,
2013-03-01 21:21:00,149.5,99.9,0.00,NNE,25,10.1,13.0,64,0.00,,SKC,0.00,VWS V14.01,2013-03-02 02:21:00,
2013-03-01 21:24:00,149.5,99.9,0.00,NE,44,9.8,15.1,65,0.00,,SKC,0.00,VWS V14.01,2013-03-02 02:24:00,
2013-03-01 21:25:00,149.5,99.9,0.00,NNE,17,10.7,11.0,65,0.00,,SKC,0.00,VWS V14.01,2013-03-02 02:25:00,
2013-03-01 21:26:00,149.5,99.9,0.00,NNE,21,7.2,11.0,65,0.00,,SKC,0.00,VWS V14.01,2013-03-02 02:26:00,
2013-03-01 21:29:00,149.5,99.9,0.00,North,7,13.0,18.3,65,0.00,,SKC,0.00,VWS V14.01,2013-03-02 02:29:00,
2013-03-01 21:30:00,149.5,99.9,0.00,North,8,9.4,11.2,65,0.00,,SKC,0.00,VWS V14.01,2013-03-02 02:30:00,
2013-03-01 21:31:00,149.5,99.9,0.00,NNE,17,11.1,13.3,66,0.00,,SKC,0.00,VWS V14.01,2013-03-02 02:31:00,
2013-03-01 21:34:00,149.5,99.9,0.00,NNE,13,14.9,19.6,66,0.00,,SKC,0.00,VWS V14.01,2013-03-02 02:34:00,
2013-03-01 21:35:00,149.5,99.9,0.00,NNE,20,9.4,14.7,66,0.00,,SKC,0.00,VWS V14.01,2013-03-02 02:35:00,
2013-03-01 21:36:00,149.5,99.9,0.00,WNW,295,10.2,11.0,66,0.00,,SKC,0.00,VWS V14.01,2013-03-02 02:36:00,
2013-03-01 21:39:00,149.5,99.9,0.00,NNE,27,11.5,15.4,66,0.00,,SKC,0.00,VWS V14.01,2013-03-02 02:39:00,
2013-03-01 21:40:00,149.5,99.9,0.00,North,357,16.3,17.8,66,0.00,,SKC,0.00,VWS V14.01,2013-03-02 02:40:00,
2013-03-01 21:41:00,149.5,99.9,0.00,North,7,12.5,12.7,67,0.00,,SKC,0.00,VWS V14.01,2013-03-02 02:41:00,
2013-03-01 21:45:00,149.5,99.9,0.00,NNE,21,11.8,14.5,67,0.00,,SKC,0.00,VWS V14.01,2013-03-02 02:45:00,
2013-03-01 21:46:00,149.5,99.9,0.00,NNE,21,13.0,15.9,67,0.00,,SKC,0.00,VWS V14.01,2013-03-02 02:46:00,
2013-03-01 21:47:00,149.5,99.9,0.00,NE,41,10.3,14.0,67,0.00,,SKC,0.00,VWS V14.01,2013-03-02 02:47:00,
2013-03-01 21:50:00,149.5,99.9,0.00,NNE,31,13.1,15.0,68,0.00,,SKC,0.00,VWS V14.01,2013-03-02 02:50:00,
2013-03-01 21:51:00,149.5,99.9,0.00,NNE,31,10.9,17.1,68,0.00,,SKC,0.00,VWS V14.01,2013-03-02 02:51:00,
2013-03-01 21:52:00,149.5,99.9,0.00,North,11,10.7,14.5,68,0.00,,SKC,0.00,VWS V14.01,2013-03-02 02:52:00,
2013-03-01 21:55:00,149.5,99.9,0.00,NE,34,12.4,12.7,68,0.00,,SKC,0.00,VWS V14.01,2013-03-02 02:55:00,
2013-03-01 21:56:00,149.5,99.9,0.00,North,11,9.5,15.4,68,0.00,,SKC,0.00,VWS V14.01,2013-03-02 02:56:00,
2013-03-01 21:57:00,149.5,99.9,0.00,NE,34,14.7,14.7,68,0.00,,SKC,0.00,VWS V14.01,2013-03-02 02:57:00,
2013-03-01 22:00:00,149.5,99.9,0.00,NNE,22,11.8,16.5,69,0.00,,SKC,0.00,VWS V14.01,2013-03-02 03:00:00,
2013-03-01 22:01:00,149.5,99.9,0.00,North,8,10.9,16.7,69,0.00,,SKC,0.00,VWS V14.01,2013-03-02 03:01:00,
2013-03-01 22:02:00,149.5,99.9,0.00,North,4,9.6,15.6,69,0.00,,SKC,0.00,VWS V14.01,2013-03-02 03:02:00,
2013-03-01 22:05:00,149.5,99.9,0.00,ENE,63,8.0,11.5,69,0.00,,SKC,0.00,VWS V14.01,2013-03-02 03:05:00,
2013-03-01 22:06:00,149.5,99.9,0.00,ENE,58,10.0,13.0,69,0.00,,SKC,0.00,VWS V14.01,2013-03-02 03:06:00,
2013-03-01 22:07:00,149.5,99.9,0.00,NE,34,6.0,12.2,70,0.00,,SKC,0.00,VWS V14.01,2013-03-02 03:07:00,
2013-03-01 22:10:00,149.5,99.9,0.00,North,357,10.6,13.5,70,0.00,,SKC,0.00,VWS V14.01,2013-03-02 03:10:00,
2013-03-01 22:11:00,149.5,99.9,0.00,North,11,7.8,7.8,70,0.00,,SKC,0.00,VWS V14.01,2013-03-02 03:11:00,
2013-03-01 22:12:00,149.5,99.9,0.00,NNE,18,8.3,9.6,70,0.00,,SKC,0.00,VWS V14.01,2013-03-02 03:12:00,
2013-03-01 22:15:00,149.5,99.9,0.00,North,353,9.1,11.9,71,0.00,,SKC,0.00,VWS V14.01,2013-03-02 03:15:00,
2013-03-01 22:16:00,149.5,99.9,0.00,NE,35,6.6,11.2,71,0.00,,SKC,0.00,VWS V14.01,2013-03-02 03:16:00,
2013-03-01 22:17:00,149.5,99.9,0.00,North,10,8.0,8.0,71,0.00,,SKC,0.00,VWS V14.01,2013-03-02 03:17:00,
2013-03-01 22:20:00,149.5,99.9,0.00,NNE,15,9.8,10.4,71,0.00,,SKC,0.00,VWS V14.01,2013-03-02 03:20:00,
2013-03-01 22:21:00,149.5,99.9,0.00,NNE,24,7.3,7.6,72,0.00,,SKC,0.00,VWS V14.01,2013-03-02 03:21:00,
2013-03-01 22:22:00,149.5,99.9,0.00,North,6,9.7,11.1,72,0.00,,SKC,0.00,VWS V14.01,2013-03-02 03:22:00,
2013-03-01 22:25:00,149.5,99.9,0.00,NNE,22,8.1,8.1,72,0.00,,SKC,0.00,VWS V14.01,2013-03-02 03:25:00,
2013-03-01 22:26:00,149.5,99.9,0.00,NNE,27,10.7,11.4,72,0.00,,SKC,0.00,VWS V14.01,2013-03-02 03:26:00,
2013-03-01 22:27:00,149.5,99.9,0.00,NNE,21,7.5,12.4,72,0.00,,SKC,0.00,VWS V14.01,2013-03-02 03:27:00,
2013-03-01 22:30:00,149.5,99.9,0.00,NNE,17,7.7,8.7,73,0.00,,SKC,0.00,VWS V14.01,2013-03-02 03:30:00,
2013-03-01 22:31:00,149.5,99.9,0.00,NNE,14,7.8,10.1,73,0.00,,SKC,0.00,VWS V14.01,2013-03-02 03:31:00,
2013-03-01 22:32:00,149.5,99.9,0.00,NE,39,4.8,8.3,73,0.00,,SKC,0.00,VWS V14.01,2013-03-02 03:32:00,
2013-03-01 22:35:00,149.5,99.9,0.00,NNE,27,6.6,7.6,73,0.00,,SKC,0.00,VWS V14.01,2013-03-02 03:35:00,
2013-03-01 22:36:00,149.5,99.9,0.00,NE,34,6.2,7.2,73,0.00,,SKC,0.00,VWS V14.01,2013-03-02 03:36:00,
2013-03-01 22:37:00,149.5,99.9,0.00,NNE,13,7.6,7.7,73,0.00,,SKC,0.00,VWS V14.01,2013-03-02 03:37:00,
2013-03-01 22:38:00,149.5,99.9,0.00,NNE,20,4.9,9.7,74,0.00,,SKC,0.00,VWS V14.01,2013-03-02 03:38:00,
2013-03-01 22:40:00,149.5,99.9,0.00,NNE,28,7.3,7.9,74,0.00,,SKC,0.00,VWS V14.01,2013-03-02 03:40:00,
2013-03-01 22:41:00,149.5,99.9,0.00,NNE,30,4.2,4.2,74,0.00,,SKC,0.00,VWS V14.01,2013-03-02 03:41:00,
2013-03-01 22:42:00,149.5,99.9,0.00,NNE,18,8.5,8.9,74,0.00,,SKC,0.00,VWS V14.01,2013-03-02 03:42:00,
2013-03-01 22:43:00,149.5,99.9,0.00,NNE,31,6.2,9.6,74,0.00,,SKC,0.00,VWS V14.01,2013-03-02 03:43:00,
2013-03-01 22:45:00,149.5,99.9,0.00,NNE,20,6.3,6.6,75,0.00,,SKC,0.00,VWS V14.01,2013-03-02 03:45:00,
2013-03-01 22:46:00,149.5,99.9,0.00,NNE,17,6.6,6.6,75,0.00,,SKC,0.00,VWS V14.01,2013-03-02 03:46:00,
2013-03-01 22:47:00,149.5,99.9,0.00,NNE,24,3.9,8.3,75,0.00,,SKC,0.00,VWS V14.01,2013-03-02 03:47:00,
2013-03-01 22:48:00,149.5,99.9,0.00,NNE,31,5.0,5.0,75,0.00,,SKC,0.00,VWS V14.01,2013-03-02 03:48:00,
2013-03-01 22:50:00,149.5,99.9,0.00,NE,38,4.0,5.7,75,0.00,,SKC,0.00,VWS V14.01,2013-03-02 03:50:00,
2013-03-01 22:52:00,149.5,99.9,0.00,NE,38,2.7,6.0,76,0.00,,SKC,0.00,VWS V14.01,2013-03-02 03:52:00,
2013-03-01 22:54:00,149.5,99.9,0.00,NNE,13,9.5,10.3,76,0.00,,SKC,0.00,VWS V14.01,2013-03-02 03:54:00,
2013-03-01 22:56:00,149.5,99.9,0.00,NE,34,5.0,8.1,76,0.00,,SKC,0.00,VWS V14.01,2013-03-02 03:56:00,
2013-03-01 22:57:00,149.5,99.9,0.00,NE,35,9.0,9.0,76,0.00,,SKC,0.00,VWS V14.01,2013-03-02 03:57:00,
2013-03-01 22:59:00,149.5,99.9,0.00,NNE,30,5.7,7.0,76,0.00,,SKC,0.00,VWS V14.01,2013-03-02 03:59:00,
2013-03-01 23:01:00,149.5,99.9,0.00,NNE,14,7.0,10.2,77,0.00,,SKC,0.00,VWS V14.01,2013-03-02 04:01:00,
2013-03-01 23:02:00,149.5,99.9,0.00,NE,45,6.8,10.2,77,0.00,,SKC,0.00,VWS V14.01,2013-03-02 04:02:00,
2013-03-01 23:04:00,149.5,99.9,0.00,NE,52,8.1,10.1,77,0.00,,SKC,0.00,VWS V14.01,2013-03-02 04:04:00,
2013-03-01 23:06:00,149.5,99.9,0.00,ENE,58,7.1,10.0,77,0.00,,SKC,0.00,VWS V14.01,2013-03-02 04:06:00,
2013-03-01 23:07:00,149.5,99.9,0.00,NE,45,3.7,7.4,77,0.00,,SKC,0.00,VWS V14.01,2013-03-02 04:07:00,
2013-03-01 23:09:00,149.5,99.9,0.00,NNE,31,8.5,8.5,78,0.00,,SKC,0.00,VWS V14.01,2013-03-02 04:09:00,
2013-03-01 23:11:00,149.5,99.9,0.00,NE,53,6.6,9.0,78,0.00,,SKC,0.00,VWS V14.01,2013-03-02 04:11:00,
2013-03-01 23:12:00,149.5,99.9,0.00,NNE,24,11.9,13.0,78,0.00,,SKC,0.00,VWS V14.01,2013-03-02 04:12:00,
2013-03-01 23:14:00,149.5,99.9,0.00,NNE,21,9.3,9.3,78,0.00,,SKC,0.00,VWS V14.01,2013-03-02 04:14:00,
2013-03-01 23:16:00,149.5,99.9,0.00,NE,48,4.7,7.5,78,0.00,,SKC,0.00,VWS V14.01,2013-03-02 04:16:00,
2013-03-01 23:17:00,149.5,99.9,0.00,NNE,27,8.4,10.9,78,0.00,,SKC,0.00,VWS V14.01,2013-03-02 04:17:00,
2013-03-01 23:18:00,149.5,99.9,0.00,NE,48,7.4,8.4,78,0.00,,SKC,0.00,VWS V14.01,2013-03-02 04:18:00,
2013-03-01 23:19:00,149.5,99.9,0.00,NNE,20,5.1,7.1,78,0.00,,SKC,0.00,VWS V14.01,2013-03-02 04:19:00,
2013-03-01 23:21:00,149.5,99.9,0.00,NNE,28,6.7,8.1,79,0.00,,SKC,0.00,VWS V14.01,2013-03-02 04:21:00,
2013-03-01 23:22:00,149.5,99.9,0.00,NNE,21,6.0,8.8,79,0.00,,SKC,0.00,VWS V14.01,2013-03-02 04:22:00,
2013-03-01 23:23:00,149.5,99.9,0.00,NNE,28,4.8,8.8,79,0.00,,SKC,0.00,VWS V14.01,2013-03-02 04:23:00,
2013-03-01 23:25:00,149.5,99.9,0.00,NNE,18,7.1,9.3,79,0.00,,SKC,0.00,VWS V14.01,2013-03-02 04:25:00,
2013-03-01 23:26:00,149.5,99.9,0.00,NNE,31,8.2,8.2,79,0.00,,SKC,0.00,VWS V14.01,2013-03-02 04:26:00,
2013-03-01 23:27:00,149.5,99.9,0.00,NNE,28,6.2,7.3,79,0.00,,SKC,0.00,VWS V14.01,2013-03-02 04:27:00,
2013-03-01 23:28:00,149.5,99.9,0.00,NNE,25,4.6,7.3,79,0.00,,SKC,0.00,VWS V14.01,2013-03-02 04:28:00,
2013-03-01 23:30:00,149.5,99.9,0.00,North,7,4.7,8.0,79,0.00,,SKC,0.00,VWS V14.01,2013-03-02 04:30:00,
2013-03-01 23:31:00,149.5,99.9,0.00,NNE,20,4.5,5.5,79,0.00,,SKC,0.00,VWS V14.01,2013-03-02 04:31:00,
2013-03-01 23:32:00,149.5,99.9,0.00,NNE,28,5.1,7.1,79,0.00,,SKC,0.00,VWS V14.01,2013-03-02 04:32:00,
2013-03-01 23:33:00,149.5,99.9,0.00,NE,39,3.7,7.1,80,0.00,,SKC,0.00,VWS V14.01,2013-03-02 04:33:00,
2013-03-01 23:35:00,149.5,99.9,0.00,NNE,21,4.7,5.1,80,0.00,,SKC,0.00,VWS V14.01,2013-03-02 04:35:00,
2013-03-01 23:36:00,149.5,99.9,0.00,North,1,8.1,10.8,80,0.00,,SKC,0.00,VWS V14.01,2013-03-02 04:36:00,
2013-03-01 23:38:00,149.5,99.9,0.00,NE,52,7.0,8.8,80,0.00,,SKC,0.00,VWS V14.01,2013-03-02 04:38:00,
2013-03-01 23:40:00,149.5,99.9,0.00,NNE,17,5.4,7.5,80,0.00,,SKC,0.00,VWS V14.01,2013-03-02 04:40:00,
2013-03-01 23:41:00,149.5,99.9,0.00,NNE,13,6.8,9.1,80,0.00,,SKC,0.00,VWS V14.01,2013-03-02 04:41:00,
2013-03-01 23:43:00,149.5,99.9,0.00,NE,42,5.5,8.1,80,0.00,,SKC,0.00,VWS V14.01,2013-03-02 04:43:00,
2013-03-01 23:45:00,149.5,99.9,0.00,NE,48,6.6,6.8,81,0.00,,SKC,0.00,VWS V14.01,2013-03-02 04:45:00,
2013-03-01 23:46:00,149.5,99.9,0.00,NE,38,4.7,4.8,81,0.00,,SKC,0.00,VWS V14.01,2013-03-02 04:46:00,
2013-03-01 23:48:00,149.5,99.9,0.00,NE,49,7.1,7.2,81,0.00,,SKC,0.00,VWS V14.01,2013-03-02 04:48:00,
2013-03-01 23:50:00,149.5,99.9,0.00,NNE,30,6.0,7.3,81,0.00,,SKC,0.00,VWS V14.01,2013-03-02 04:50:00,
2013-03-01 23:51:00,149.5,99.9,0.00,NE,45,5.3,7.6,81,0.00,,SKC,0.00,VWS V14.01,2013-03-02 04:51:00,
2013-03-01 23:53:00,149.5,99.9,0.00,NE,35,4.7,8.5,82,0.00,,SKC,0.00,VWS V14.01,2013-03-02 04:53:00,
2013-03-01 23:56:00,149.5,99.9,0.00,NE,39,2.4,5.0,82,0.00,,SKC,0.00,VWS V14.01,2013-03-02 04:56:00,
2013-03-01 23:58:00,149.5,99.9,0.00,NE,44,6.2,9.7,82,0.00,,SKC,0.00,VWS V14.01,2013-03-02 04:58:00,